GEFSSE_prec_meanprecacc_150.txt.gz
Total_Precipitation_Accumulation
0.17 0.20 0.39 0.39 0.28 0.25 0.25 0.27 0.31 0.28 0.24 0.26 0.26 0.25 0.20 0.15 0.13 0.13 0.16 0.18 0.20 0.26 0.32 0.38 0.42 0.45 0.52 0.56 0.64 0.67 0.67 0.74 0.90 1.14 1.34 1.39 1.40 1.45 1.67 1.81 1.79 1.43 1.34
0.07 0.12 0.29 0.34 0.26 0.23 0.22 0.21 0.25 0.24 0.23 0.23 0.25 0.27 0.23 0.20 0.17 0.17 0.18 0.21 0.25 0.30 0.32 0.34 0.38 0.38 0.42 0.47 0.53 0.59 0.67 0.81 1.19 1.52 1.69 1.59 1.60 1.66 1.79 1.79 1.79 1.42 1.25
0.04 0.06 0.15 0.26 0.24 0.19 0.19 0.19 0.22 0.22 0.23 0.21 0.21 0.23 0.23 0.21 0.17 0.18 0.20 0.24 0.30 0.32 0.31 0.38 0.39 0.37 0.39 0.45 0.52 0.55 0.68 0.98 1.51 2.04 2.20 1.86 1.51 1.72 1.83 1.81 1.62 1.26 1.06
0.05 0.05 0.07 0.16 0.19 0.18 0.17 0.18 0.21 0.20 0.18 0.17 0.17 0.19 0.20 0.20 0.18 0.18 0.21 0.26 0.30 0.30 0.31 0.38 0.36 0.36 0.35 0.40 0.51 0.65 0.84 1.07 1.51 1.94 2.13 1.56 1.22 1.26 1.49 1.39 1.24 1.05 0.84
0.10 0.07 0.09 0.13 0.15 0.16 0.18 0.18 0.20 0.20 0.17 0.16 0.16 0.18 0.19 0.19 0.19 0.21 0.24 0.27 0.33 0.35 0.33 0.33 0.32 0.36 0.37 0.40 0.51 0.70 0.96 1.22 1.51 1.78 1.54 1.74 1.66 1.28 1.20 1.12 1.09 0.88 0.68
0.13 0.08 0.11 0.15 0.14 0.15 0.16 0.17 0.19 0.18 0.16 0.17 0.17 0.18 0.19 0.19 0.21 0.22 0.23 0.29 0.36 0.40 0.38 0.37 0.37 0.38 0.37 0.39 0.48 0.71 0.96 1.27 1.51 1.15 0.89 1.25 1.27 1.16 1.11 1.09 0.99 0.82 0.64
0.18 0.11 0.11 0.19 0.18 0.17 0.18 0.20 0.20 0.18 0.17 0.16 0.17 0.19 0.22 0.22 0.23 0.24 0.26 0.32 0.36 0.38 0.37 0.37 0.38 0.37 0.37 0.39 0.45 0.67 1.01 1.34 1.33 0.91 0.75 0.97 0.94 0.97 1.07 1.10 1.01 0.84 0.64
0.27 0.18 0.20 0.26 0.27 0.24 0.24 0.26 0.26 0.21 0.20 0.20 0.20 0.23 0.24 0.24 0.26 0.28 0.32 0.35 0.37 0.39 0.37 0.36 0.36 0.34 0.35 0.43 0.54 0.67 0.94 1.10 0.96 0.83 0.74 0.81 0.68 0.92 1.08 1.00 0.92 0.82 0.70
0.53 0.40 0.35 0.33 0.32 0.30 0.33 0.34 0.31 0.27 0.25 0.26 0.27 0.26 0.25 0.25 0.27 0.31 0.39 0.40 0.40 0.42 0.39 0.37 0.36 0.38 0.41 0.49 0.59 0.74 0.94 1.15 1.08 1.02 0.80 0.74 0.65 0.94 1.21 1.03 0.86 0.74 0.73
1.14 0.90 0.66 0.46 0.46 0.38 0.36 0.38 0.37 0.31 0.30 0.30 0.30 0.28 0.31 0.36 0.41 0.48 0.51 0.47 0.50 0.53 0.54 0.55 0.53 0.53 0.61 0.68 0.77 0.91 1.06 1.04 1.05 1.27 1.03 0.71 0.74 1.03 1.28 1.31 1.10 0.91 0.84
1.49 1.30 1.16 0.92 0.66 0.63 0.55 0.47 0.54 0.51 0.50 0.53 0.60 0.58 0.63 0.82 0.85 0.93 0.80 0.75 0.79 0.86 0.91 0.97 0.98 0.98 0.96 0.88 0.99 1.18 1.14 1.08 1.33 1.50 1.18 0.87 0.97 1.31 1.49 1.59 1.44 1.30 1.19
1.51 1.34 1.34 1.27 0.96 0.83 0.76 0.91 1.12 1.02 1.04 1.05 1.22 1.10 1.30 1.41 1.25 0.90 0.95 1.07 1.17 1.42 1.52 1.61 1.67 1.60 1.45 1.28 1.39 1.44 1.23 1.29 1.44 1.29 1.11 1.01 1.12 1.44 1.70 1.82 1.71 1.50 1.41
1.74 1.61 1.34 1.44 1.25 1.16 1.23 1.29 1.40 1.48 1.48 1.46 1.52 1.53 1.72 1.61 1.37 1.21 1.40 1.66 1.80 1.96 2.12 2.26 2.28 2.00 1.99 2.10 2.11 1.90 1.75 1.64 1.67 1.42 1.07 1.16 1.29 1.56 1.82 1.91 1.80 1.70 1.55
2.01 1.91 1.77 1.77 1.72 1.65 1.63 1.54 1.41 1.25 1.28 1.41 1.55 1.60 1.77 1.80 1.83 1.79 1.86 1.93 2.07 2.37 2.70 2.69 2.74 2.67 2.73 2.60 2.38 2.34 2.16 1.88 2.00 2.02 1.50 1.42 1.53 1.81 1.94 1.94 1.84 1.78 1.76
2.71 2.55 2.52 2.60 2.35 2.09 1.92 1.59 1.30 1.17 1.06 1.16 1.28 1.39 1.45 1.68 1.89 1.90 1.74 1.77 1.77 1.99 2.38 2.79 2.84 3.07 3.14 2.86 2.43 2.25 2.32 2.19 2.14 2.02 1.64 1.71 1.89 1.95 1.93 1.88 1.85 1.81 1.81
3.70 3.51 3.30 3.31 2.80 2.43 2.11 1.70 1.45 1.23 1.18 1.11 1.05 1.11 1.34 1.49 1.68 1.64 1.62 1.74 1.80 1.78 1.93 2.33 2.58 2.87 2.90 2.60 2.18 2.06 2.05 2.08 1.97 1.90 1.66 1.69 1.80 1.69 1.70 1.87 2.02 2.03 1.96
4.82 4.41 3.78 3.49 3.13 2.80 2.48 1.97 1.55 1.34 1.13 1.10 1.03 1.02 1.11 1.24 1.38 1.37 1.44 1.42 1.48 1.49 1.52 1.68 1.92 2.15 2.16 2.09 2.05 2.07 2.02 1.93 1.77 1.73 1.76 1.69 1.50 1.54 1.60 1.70 1.84 1.94 2.08
5.62 4.99 4.21 3.52 3.50 3.29 2.91 2.25 1.72 1.40 1.20 1.04 0.96 0.88 0.86 0.91 0.89 0.93 0.98 0.98 0.96 0.91 0.99 1.20 1.32 1.49 1.72 1.89 1.99 1.95 1.94 1.96 1.79 1.71 1.69 1.66 1.63 1.40 1.58 1.66 1.64 1.70 1.94
5.81 5.57 4.87 4.59 4.33 3.66 2.88 2.21 1.74 1.44 1.27 1.08 0.99 0.87 0.82 0.73 0.69 0.74 0.79 0.86 0.67 0.64 0.69 0.71 0.95 1.10 1.33 1.47 1.37 1.51 1.53 1.56 1.48 1.33 1.34 1.24 1.39 1.34 1.39 1.45 1.50 1.49 1.69
4.78 4.67 4.53 4.54 4.04 3.41 2.73 2.20 1.81 1.51 1.27 1.08 0.97 0.90 0.84 0.76 0.69 0.74 0.67 0.64 0.54 0.58 0.67 0.77 0.94 0.94 0.97 1.09 1.02 1.21 1.18 1.11 1.14 1.08 0.97 0.98 1.04 0.96 1.05 1.18 1.23 1.11 1.39
3.22 3.31 3.57 3.74 3.42 2.88 2.41 1.86 1.56 1.42 1.23 1.09 0.97 0.82 0.81 0.73 0.74 0.76 0.65 0.69 0.60 0.60 0.61 0.62 0.74 0.78 0.75 0.75 1.02 1.24 1.08 0.86 0.84 0.76 0.75 0.84 0.91 0.94 1.09 1.21 1.19 1.18 1.10
2.30 2.61 2.96 3.17 2.98 2.42 2.13 1.84 1.63 1.48 1.32 1.22 1.11 0.92 0.76 0.71 0.69 0.62 0.71 0.59 0.58 0.64 0.63 0.65 0.73 0.75 0.66 0.66 0.90 1.14 1.08 1.14 1.09 0.62 0.69 0.79 0.85 0.99 1.05 1.04 1.09 1.20 1.08
2.03 2.17 2.20 2.43 2.59 2.29 2.12 1.99 1.81 1.65 1.42 1.31 1.18 0.98 0.75 0.67 0.65 0.63 0.60 0.58 0.67 0.54 0.66 0.76 0.75 0.74 0.73 0.65 0.65 0.83 0.94 0.96 0.91 0.81 0.69 0.68 0.76 0.94 1.00 1.05 1.02 1.11 1.14
1.41 1.68 1.92 2.14 2.27 2.14 1.99 1.77 1.56 1.33 1.14 1.00 0.97 0.96 0.90 0.79 0.68 0.64 0.56 0.61 0.69 0.60 0.78 0.61 0.63 0.73 0.74 0.64 0.59 0.51 0.53 0.66 0.78 0.88 0.80 0.68 0.70 0.79 0.83 0.78 0.84 1.00 1.04
0.97 1.34 1.74 2.05 2.24 2.06 1.75 1.59 1.54 1.39 1.25 1.14 1.03 1.12 1.01 0.93 0.81 0.71 0.66 0.67 0.62 0.58 0.66 0.68 0.81 0.73 0.71 0.66 0.60 0.54 0.56 0.53 0.50 0.61 0.77 0.79 0.78 0.61 0.55 0.61 0.73 0.88 0.93
0.77 1.00 1.25 1.55 1.80 1.79 1.61 1.51 1.47 1.44 1.38 1.25 1.04 1.00 0.94 0.90 0.87 0.82 0.83 0.80 0.71 0.62 0.63 0.64 0.71 0.74 0.79 0.85 0.72 0.60 0.62 0.59 0.51 0.54 0.52 0.54 0.64 0.53 0.49 0.53 0.62 0.73 0.81

GEFSSE_prec_meanprecacc_156.txt.gz
Total_Precipitation_Accumulation
0.30 0.34 0.52 0.49 0.35 0.32 0.33 0.34 0.37 0.32 0.27 0.28 0.29 0.28 0.24 0.20 0.18 0.17 0.19 0.21 0.23 0.30 0.36 0.42 0.46 0.49 0.56 0.62 0.70 0.74 0.74 0.80 0.99 1.21 1.43 1.47 1.47 1.53 1.75 1.85 1.82 1.45 1.37
0.13 0.22 0.39 0.41 0.32 0.32 0.31 0.29 0.31 0.27 0.26 0.26 0.28 0.30 0.27 0.23 0.20 0.20 0.21 0.23 0.28 0.34 0.36 0.36 0.42 0.42 0.46 0.52 0.59 0.64 0.72 0.87 1.26 1.60 1.79 1.70 1.69 1.75 1.85 1.81 1.80 1.43 1.27
0.07 0.11 0.20 0.31 0.29 0.27 0.26 0.26 0.26 0.24 0.25 0.23 0.23 0.25 0.26 0.23 0.20 0.21 0.23 0.27 0.32 0.35 0.35 0.40 0.44 0.41 0.44 0.50 0.56 0.59 0.73 1.04 1.57 2.13 2.28 1.92 1.59 1.81 1.87 1.83 1.65 1.28 1.09
0.07 0.08 0.10 0.20 0.22 0.22 0.22 0.21 0.23 0.21 0.19 0.19 0.19 0.21 0.22 0.23 0.20 0.20 0.24 0.29 0.34 0.34 0.35 0.43 0.42 0.42 0.40 0.44 0.55 0.70 0.90 1.13 1.58 2.01 2.15 1.58 1.27 1.33 1.54 1.43 1.27 1.08 0.86
0.12 0.09 0.11 0.16 0.17 0.19 0.20 0.20 0.22 0.21 0.18 0.16 0.17 0.20 0.21 0.22 0.23 0.23 0.27 0.31 0.36 0.39 0.38 0.38 0.38 0.42 0.42 0.44 0.56 0.77 1.04 1.28 1.57 1.81 1.56 1.76 1.70 1.35 1.25 1.15 1.11 0.90 0.69
0.14 0.10 0.13 0.17 0.15 0.16 0.17 0.18 0.20 0.19 0.17 0.18 0.18 0.20 0.22 0.23 0.25 0.25 0.27 0.31 0.38 0.44 0.43 0.41 0.42 0.42 0.41 0.44 0.54 0.79 1.03 1.34 1.55 1.17 0.91 1.28 1.31 1.21 1.15 1.11 1.01 0.84 0.66
0.18 0.12 0.13 0.21 0.20 0.18 0.19 0.21 0.21 0.19 0.17 0.17 0.18 0.22 0.25 0.26 0.26 0.27 0.28 0.35 0.40 0.43 0.42 0.42 0.44 0.42 0.42 0.46 0.53 0.75 1.08 1.40 1.36 0.92 0.76 1.00 0.98 1.01 1.11 1.13 1.04 0.87 0.68
0.28 0.18 0.21 0.28 0.28 0.25 0.25 0.27 0.26 0.22 0.20 0.21 0.21 0.24 0.27 0.27 0.29 0.32 0.35 0.39 0.40 0.43 0.42 0.40 0.40 0.38 0.39 0.50 0.62 0.75 1.02 1.15 0.97 0.84 0.75 0.82 0.71 0.96 1.11 1.02 0.95 0.85 0.74
0.54 0.41 0.35 0.33 0.32 0.30 0.34 0.35 0.33 0.29 0.27 0.27 0.28 0.27 0.28 0.27 0.30 0.34 0.43 0.44 0.43 0.44 0.43 0.41 0.39 0.43 0.47 0.54 0.66 0.81 1.03 1.21 1.10 1.03 0.80 0.75 0.68 0.98 1.24 1.06 0.88 0.76 0.75
1.14 0.91 0.67 0.46 0.46 0.39 0.37 0.40 0.39 0.34 0.32 0.32 0.31 0.30 0.34 0.39 0.45 0.52 0.54 0.50 0.52 0.55 0.57 0.58 0.56 0.59 0.67 0.74 0.83 0.97 1.14 1.10 1.06 1.27 1.03 0.72 0.77 1.07 1.32 1.34 1.12 0.93 0.85
1.49 1.31 1.17 0.93 0.67 0.64 0.56 0.49 0.56 0.53 0.52 0.55 0.62 0.59 0.65 0.83 0.87 0.96 0.83 0.78 0.82 0.89 0.95 1.00 1.02 1.03 1.01 0.93 1.05 1.25 1.18 1.11 1.34 1.51 1.19 0.90 1.02 1.38 1.54 1.61 1.46 1.31 1.20
1.52 1.35 1.35 1.29 0.99 0.85 0.78 0.93 1.14 1.05 1.05 1.06 1.23 1.11 1.31 1.42 1.25 0.92 0.99 1.11 1.21 1.46 1.55 1.64 1.72 1.64 1.47 1.30 1.43 1.48 1.26 1.31 1.45 1.30 1.13 1.05 1.18 1.51 1.77 1.85 1.72 1.51 1.42
1.75 1.63 1.37 1.46 1.27 1.19 1.24 1.30 1.42 1.50 1.49 1.46 1.52 1.53 1.72 1.61 1.37 1.22 1.42 1.69 1.83 1.98 2.13 2.29 2.31 2.01 2.01 2.13 2.14 1.93 1.78 1.66 1.69 1.43 1.09 1.21 1.35 1.64 1.89 1.97 1.84 1.72 1.57
2.03 1.93 1.80 1.79 1.74 1.67 1.64 1.54 1.42 1.26 1.30 1.43 1.56 1.60 1.77 1.81 1.84 1.80 1.87 1.94 2.08 2.37 2.70 2.70 2.75 2.67 2.75 2.61 2.41 2.36 2.17 1.90 2.03 2.03 1.52 1.46 1.57 1.87 2.01 2.01 1.91 1.82 1.79
2.74 2.57 2.54 2.62 2.38 2.12 1.94 1.60 1.31 1.18 1.07 1.18 1.29 1.40 1.46 1.69 1.90 1.91 1.75 1.78 1.77 1.99 2.38 2.80 2.84 3.08 3.15 2.87 2.45 2.26 2.33 2.21 2.15 2.04 1.67 1.76 1.95 2.00 1.98 1.94 1.92 1.87 1.86
3.74 3.53 3.32 3.35 2.84 2.47 2.15 1.72 1.47 1.24 1.19 1.12 1.06 1.12 1.34 1.49 1.70 1.65 1.62 1.74 1.80 1.78 1.93 2.34 2.59 2.88 2.92 2.62 2.20 2.07 2.07 2.10 1.98 1.92 1.68 1.72 1.84 1.74 1.75 1.95 2.10 2.11 2.04
4.85 4.44 3.82 3.54 3.18 2.85 2.52 2.02 1.59 1.37 1.14 1.11 1.04 1.02 1.11 1.24 1.39 1.37 1.45 1.42 1.49 1.49 1.52 1.68 1.93 2.16 2.18 2.11 2.07 2.09 2.04 1.95 1.78 1.74 1.78 1.72 1.53 1.58 1.65 1.77 1.92 2.01 2.16
5.65 5.04 4.29 3.58 3.58 3.35 2.97 2.30 1.76 1.44 1.23 1.07 1.00 0.91 0.87 0.91 0.89 0.93 0.99 0.98 0.97 0.92 1.00 1.21 1.34 1.52 1.75 1.91 2.03 1.98 1.96 1.98 1.80 1.73 1.71 1.68 1.65 1.43 1.62 1.72 1.71 1.76 2.00
5.84 5.61 4.93 4.66 4.40 3.74 2.94 2.28 1.79 1.48 1.31 1.13 1.04 0.92 0.85 0.76 0.70 0.75 0.80 0.86 0.69 0.66 0.70 0.72 0.97 1.14 1.37 1.50 1.42 1.54 1.56 1.59 1.50 1.34 1.35 1.25 1.41 1.37 1.43 1.49 1.57 1.55 1.76
4.81 4.70 4.58 4.61 4.10 3.49 2.80 2.26 1.87 1.56 1.32 1.13 1.02 0.99 0.92 0.83 0.74 0.77 0.70 0.66 0.56 0.61 0.70 0.80 0.98 0.98 1.01 1.13 1.07 1.27 1.22 1.14 1.16 1.09 0.99 1.00 1.06 0.99 1.09 1.22 1.27 1.15 1.47
3.24 3.33 3.62 3.80 3.48 2.95 2.46 1.92 1.62 1.47 1.27 1.12 1.02 0.90 0.89 0.82 0.83 0.82 0.69 0.73 0.63 0.62 0.65 0.69 0.79 0.82 0.80 0.80 1.08 1.29 1.12 0.89 0.87 0.78 0.77 0.88 0.94 0.97 1.13 1.25 1.22 1.21 1.14
2.32 2.63 2.98 3.21 3.04 2.47 2.18 1.89 1.69 1.53 1.36 1.28 1.18 1.00 0.83 0.79 0.77 0.69 0.76 0.64 0.62 0.67 0.69 0.70 0.77 0.80 0.73 0.71 0.94 1.21 1.12 1.18 1.12 0.64 0.72 0.82 0.88 1.02 1.09 1.07 1.13 1.24 1.11
2.04 2.19 2.23 2.46 2.64 2.35 2.19 2.06 1.88 1.72 1.47 1.38 1.28 1.08 0.83 0.74 0.73 0.72 0.67 0.66 0.76 0.60 0.73 0.83 0.81 0.79 0.77 0.69 0.69 0.89 0.97 0.98 0.93 0.83 0.71 0.70 0.78 0.97 1.02 1.06 1.04 1.14 1.19
1.42 1.70 1.94 2.17 2.31 2.21 2.07 1.85 1.63 1.39 1.20 1.09 1.06 1.05 0.98 0.87 0.77 0.75 0.67 0.71 0.79 0.68 0.85 0.68 0.69 0.77 0.77 0.67 0.63 0.54 0.57 0.69 0.80 0.89 0.81 0.68 0.71 0.80 0.84 0.79 0.85 1.03 1.08
0.98 1.36 1.77 2.08 2.28 2.15 1.84 1.66 1.61 1.47 1.34 1.24 1.13 1.20 1.08 1.01 0.89 0.79 0.76 0.77 0.73 0.68 0.74 0.75 0.88 0.79 0.76 0.71 0.63 0.56 0.60 0.56 0.52 0.63 0.78 0.80 0.78 0.61 0.56 0.62 0.74 0.90 0.96
0.78 1.02 1.29 1.58 1.84 1.86 1.69 1.58 1.56 1.53 1.49 1.35 1.11 1.05 0.99 0.95 0.93 0.90 0.91 0.87 0.79 0.70 0.70 0.71 0.79 0.82 0.86 0.91 0.76 0.63 0.65 0.61 0.54 0.57 0.54 0.55 0.65 0.54 0.50 0.54 0.64 0.75 0.83

GEFSSE_prec_meanprecacc_162.txt.gz
Total_Precipitation_Accumulation
0.36 0.43 0.64 0.62 0.46 0.40 0.40 0.40 0.44 0.39 0.34 0.36 0.36 0.34 0.28 0.23 0.21 0.20 0.22 0.24 0.28 0.36 0.42 0.48 0.53 0.54 0.61 0.67 0.76 0.79 0.82 0.88 1.04 1.29 1.50 1.54 1.54 1.58 1.77 1.87 1.83 1.46 1.38
0.16 0.28 0.50 0.52 0.41 0.39 0.37 0.36 0.37 0.33 0.32 0.31 0.34 0.36 0.33 0.30 0.26 0.25 0.26 0.28 0.34 0.40 0.41 0.41 0.47 0.47 0.51 0.57 0.65 0.69 0.79 0.94 1.34 1.69 1.87 1.79 1.75 1.79 1.87 1.83 1.81 1.45 1.29
0.10 0.15 0.26 0.41 0.38 0.36 0.33 0.33 0.33 0.30 0.30 0.28 0.28 0.31 0.32 0.30 0.25 0.25 0.28 0.32 0.39 0.42 0.40 0.45 0.49 0.47 0.50 0.56 0.63 0.65 0.81 1.12 1.67 2.22 2.37 2.01 1.66 1.84 1.89 1.84 1.66 1.30 1.10
0.09 0.11 0.13 0.27 0.31 0.30 0.29 0.29 0.29 0.27 0.23 0.22 0.22 0.26 0.29 0.30 0.26 0.26 0.29 0.34 0.40 0.40 0.42 0.50 0.47 0.48 0.47 0.50 0.61 0.78 0.99 1.22 1.66 2.08 2.22 1.64 1.33 1.38 1.56 1.44 1.28 1.10 0.88
0.14 0.12 0.16 0.21 0.21 0.23 0.24 0.25 0.27 0.26 0.23 0.19 0.20 0.25 0.28 0.29 0.30 0.30 0.34 0.37 0.42 0.44 0.45 0.46 0.45 0.48 0.49 0.51 0.63 0.86 1.12 1.36 1.63 1.85 1.61 1.83 1.77 1.42 1.30 1.18 1.14 0.93 0.71
0.16 0.12 0.17 0.21 0.18 0.18 0.20 0.21 0.24 0.23 0.21 0.22 0.22 0.25 0.27 0.30 0.32 0.32 0.34 0.37 0.44 0.49 0.51 0.51 0.50 0.51 0.51 0.52 0.62 0.88 1.14 1.45 1.61 1.19 0.95 1.32 1.36 1.27 1.19 1.14 1.03 0.86 0.68
0.19 0.14 0.17 0.26 0.23 0.20 0.21 0.24 0.24 0.22 0.20 0.21 0.22 0.25 0.30 0.32 0.33 0.35 0.36 0.40 0.45 0.48 0.48 0.51 0.51 0.50 0.54 0.57 0.63 0.84 1.19 1.50 1.41 0.94 0.79 1.04 1.02 1.06 1.15 1.16 1.07 0.88 0.69
0.29 0.20 0.23 0.32 0.32 0.29 0.28 0.30 0.30 0.25 0.23 0.24 0.25 0.28 0.32 0.34 0.36 0.40 0.42 0.45 0.45 0.49 0.48 0.45 0.46 0.45 0.46 0.60 0.72 0.83 1.10 1.21 1.00 0.84 0.76 0.85 0.74 1.00 1.14 1.06 0.98 0.87 0.76
0.54 0.41 0.37 0.36 0.35 0.35 0.39 0.39 0.36 0.31 0.30 0.30 0.31 0.31 0.32 0.32 0.36 0.41 0.50 0.52 0.48 0.50 0.50 0.48 0.47 0.51 0.53 0.62 0.72 0.88 1.11 1.27 1.12 1.04 0.81 0.77 0.71 1.03 1.26 1.08 0.90 0.78 0.77
1.16 0.92 0.69 0.48 0.50 0.43 0.41 0.44 0.43 0.37 0.35 0.35 0.35 0.33 0.38 0.45 0.50 0.58 0.61 0.58 0.57 0.62 0.65 0.64 0.63 0.66 0.74 0.79 0.88 1.02 1.19 1.16 1.10 1.30 1.06 0.74 0.80 1.12 1.34 1.36 1.15 0.95 0.87
1.50 1.32 1.18 0.94 0.70 0.68 0.60 0.52 0.61 0.57 0.55 0.58 0.66 0.62 0.70 0.91 0.93 1.02 0.89 0.82 0.86 0.96 1.04 1.05 1.08 1.09 1.07 0.99 1.11 1.31 1.23 1.17 1.39 1.56 1.25 0.92 1.05 1.43 1.58 1.65 1.49 1.34 1.22
1.53 1.36 1.36 1.30 1.00 0.87 0.79 0.96 1.19 1.09 1.09 1.10 1.28 1.16 1.36 1.48 1.31 0.95 1.03 1.15 1.27 1.53 1.65 1.71 1.78 1.69 1.51 1.35 1.48 1.52 1.29 1.35 1.50 1.35 1.17 1.08 1.21 1.57 1.84 1.90 1.75 1.53 1.44
1.77 1.64 1.37 1.48 1.30 1.22 1.27 1.33 1.45 1.54 1.53 1.49 1.56 1.58 1.77 1.64 1.39 1.24 1.45 1.75 1.91 2.05 2.22 2.35 2.36 2.04 2.03 2.18 2.19 1.96 1.80 1.69 1.73 1.46 1.10 1.23 1.38 1.69 1.95 2.03 1.88 1.74 1.59
2.05 1.95 1.83 1.81 1.77 1.71 1.67 1.57 1.45 1.29 1.32 1.45 1.58 1.63 1.80 1.84 1.86 1.83 1.90 1.99 2.14 2.44 2.79 2.78 2.81 2.70 2.77 2.65 2.45 2.39 2.22 1.92 2.06 2.06 1.55 1.47 1.59 1.90 2.08 2.09 1.97 1.87 1.83
2.76 2.60 2.59 2.66 2.43 2.15 1.98 1.64 1.34 1.21 1.10 1.20 1.32 1.42 1.48 1.72 1.92 1.93 1.78 1.81 1.81 2.04 2.45 2.86 2.89 3.11 3.18 2.90 2.47 2.29 2.37 2.23 2.17 2.08 1.70 1.78 1.98 2.03 2.03 1.99 1.98 1.92 1.93
3.76 3.57 3.37 3.41 2.93 2.52 2.20 1.78 1.51 1.28 1.22 1.16 1.09 1.14 1.36 1.52 1.73 1.67 1.65 1.78 1.85 1.83 1.98 2.38 2.63 2.93 2.96 2.65 2.24 2.11 2.11 2.14 2.02 1.98 1.73 1.75 1.87 1.76 1.78 1.98 2.17 2.20 2.13
4.88 4.47 3.86 3.58 3.23 2.90 2.57 2.06 1.64 1.42 1.19 1.15 1.08 1.07 1.14 1.27 1.43 1.41 1.49 1.47 1.54 1.54 1.57 1.73 1.97 2.21 2.23 2.16 2.12 2.14 2.09 2.00 1.81 1.79 1.82 1.75 1.56 1.60 1.67 1.80 1.96 2.07 2.24
5.68 5.06 4.32 3.61 3.61 3.41 3.02 2.33 1.80 1.48 1.28 1.12 1.05 0.96 0.91 0.94 0.94 0.99 1.05 1.04 1.02 0.97 1.04 1.27 1.39 1.57 1.82 1.98 2.09 2.05 2.02 2.05 1.84 1.77 1.74 1.70 1.68 1.46 1.66 1.75 1.74 1.79 2.05
5.86 5.64 4.97 4.73 4.45 3.79 3.00 2.33 1.86 1.55 1.37 1.19 1.10 0.98 0.91 0.80 0.75 0.81 0.88 0.94 0.75 0.73 0.76 0.76 1.02 1.20 1.43 1.58 1.47 1.61 1.61 1.66 1.57 1.39 1.39 1.28 1.44 1.42 1.50 1.54 1.60 1.58 1.79
4.82 4.71 4.62 4.67 4.16 3.54 2.87 2.31 1.94 1.66 1.38 1.18 1.09 1.06 0.99 0.88 0.79 0.85 0.77 0.73 0.63 0.69 0.80 0.90 1.08 1.09 1.09 1.20 1.11 1.31 1.27 1.19 1.22 1.15 1.04 1.04 1.09 1.02 1.13 1.26 1.32 1.19 1.49
3.24 3.34 3.62 3.82 3.50 2.98 2.53 1.99 1.71 1.56 1.36 1.20 1.09 0.97 0.96 0.88 0.91 0.91 0.76 0.83 0.73 0.73 0.76 0.80 0.90 0.93 0.89 0.87 1.16 1.38 1.18 0.93 0.91 0.82 0.81 0.92 0.98 1.00 1.16 1.28 1.26 1.26 1.19
2.33 2.64 2.99 3.22 3.06 2.50 2.22 1.96 1.77 1.62 1.44 1.35 1.25 1.08 0.92 0.86 0.85 0.77 0.88 0.75 0.74 0.81 0.82 0.82 0.90 0.90 0.82 0.79 1.06 1.33 1.22 1.25 1.16 0.66 0.74 0.84 0.91 1.06 1.11 1.09 1.16 1.29 1.16
2.04 2.19 2.23 2.47 2.66 2.39 2.22 2.12 1.97 1.82 1.57 1.49 1.41 1.21 0.92 0.81 0.80 0.80 0.77 0.76 0.88 0.72 0.87 0.99 0.95 0.93 0.90 0.80 0.80 1.02 1.08 1.09 1.02 0.88 0.73 0.71 0.80 0.99 1.04 1.08 1.05 1.17 1.22
1.43 1.70 1.94 2.18 2.33 2.24 2.12 1.89 1.69 1.47 1.31 1.24 1.24 1.25 1.10 0.95 0.83 0.81 0.76 0.81 0.89 0.76 0.98 0.80 0.80 0.91 0.92 0.79 0.73 0.64 0.66 0.80 0.92 0.99 0.87 0.70 0.73 0.82 0.86 0.81 0.87 1.05 1.10
0.98 1.37 1.78 2.09 2.30 2.18 1.88 1.70 1.66 1.53 1.43 1.35 1.27 1.34 1.20 1.10 0.96 0.84 0.83 0.86 0.82 0.76 0.83 0.87 1.01 0.93 0.88 0.82 0.74 0.66 0.69 0.65 0.60 0.71 0.85 0.86 0.83 0.65 0.60 0.67 0.78 0.92 0.97
0.79 1.02 1.29 1.60 1.86 1.88 1.72 1.62 1.61 1.59 1.55 1.41 1.19 1.14 1.06 1.03 1.00 0.96 0.98 0.96 0.87 0.78 0.80 0.83 0.93 0.94 0.99 1.03 0.88 0.73 0.74 0.68 0.61 0.65 0.63 0.64 0.72 0.59 0.54 0.58 0.66 0.77 0.85

GEFSSE_prec_meanprecacc_168.txt.gz
Total_Precipitation_Accumulation
0.43 0.49 0.68 0.66 0.51 0.46 0.46 0.46 0.49 0.44 0.39 0.41 0.42 0.40 0.34 0.30 0.27 0.26 0.28 0.29 0.32 0.39 0.47 0.53 0.57 0.59 0.66 0.72 0.80 0.82 0.86 0.93 1.10 1.35 1.55 1.58 1.58 1.62 1.82 1.92 1.89 1.48 1.39
0.20 0.32 0.54 0.57 0.46 0.44 0.43 0.42 0.43 0.39 0.38 0.36 0.40 0.43 0.41 0.39 0.32 0.31 0.33 0.35 0.40 0.45 0.45 0.45 0.52 0.51 0.57 0.63 0.71 0.75 0.85 0.98 1.40 1.76 1.93 1.84 1.80 1.83 1.93 1.89 1.86 1.47 1.30
0.12 0.16 0.29 0.45 0.43 0.40 0.38 0.38 0.39 0.36 0.36 0.32 0.33 0.37 0.38 0.39 0.33 0.31 0.36 0.40 0.46 0.48 0.44 0.49 0.54 0.52 0.55 0.61 0.68 0.71 0.86 1.16 1.72 2.30 2.48 2.08 1.70 1.88 1.94 1.88 1.68 1.31 1.11
0.10 0.12 0.16 0.31 0.36 0.35 0.33 0.33 0.34 0.32 0.28 0.26 0.27 0.31 0.35 0.38 0.35 0.33 0.36 0.40 0.46 0.45 0.46 0.53 0.52 0.55 0.52 0.55 0.65 0.82 1.04 1.26 1.73 2.21 2.35 1.73 1.37 1.40 1.59 1.46 1.30 1.12 0.90
0.15 0.13 0.18 0.25 0.26 0.29 0.30 0.31 0.33 0.32 0.29 0.25 0.25 0.29 0.33 0.36 0.36 0.35 0.42 0.44 0.48 0.50 0.49 0.49 0.51 0.57 0.55 0.54 0.67 0.90 1.17 1.43 1.71 1.99 1.72 1.93 1.83 1.45 1.32 1.19 1.15 0.94 0.72
0.16 0.13 0.18 0.24 0.21 0.22 0.24 0.27 0.31 0.30 0.28 0.27 0.28 0.30 0.32 0.36 0.38 0.38 0.39 0.43 0.51 0.55 0.56 0.57 0.56 0.57 0.57 0.56 0.66 0.93 1.20 1.55 1.72 1.29 1.04 1.40 1.40 1.30 1.21 1.16 1.05 0.87 0.70
0.20 0.15 0.18 0.27 0.24 0.22 0.24 0.28 0.30 0.27 0.26 0.26 0.28 0.31 0.35 0.37 0.39 0.41 0.43 0.46 0.51 0.55 0.54 0.57 0.56 0.55 0.59 0.62 0.67 0.89 1.26 1.59 1.51 1.00 0.85 1.11 1.05 1.08 1.17 1.17 1.09 0.90 0.71
0.29 0.21 0.23 0.32 0.33 0.30 0.30 0.33 0.32 0.27 0.26 0.27 0.29 0.33 0.37 0.39 0.41 0.46 0.50 0.54 0.50 0.54 0.53 0.50 0.51 0.50 0.50 0.64 0.77 0.88 1.16 1.29 1.04 0.87 0.80 0.89 0.75 1.01 1.16 1.07 1.00 0.89 0.78
0.57 0.46 0.37 0.37 0.36 0.36 0.40 0.41 0.38 0.33 0.32 0.32 0.35 0.35 0.36 0.37 0.42 0.47 0.57 0.60 0.53 0.55 0.56 0.53 0.52 0.57 0.59 0.67 0.78 0.94 1.17 1.33 1.16 1.05 0.83 0.80 0.71 1.03 1.27 1.08 0.91 0.79 0.79
1.17 0.96 0.71 0.50 0.51 0.45 0.42 0.45 0.45 0.38 0.37 0.36 0.37 0.36 0.43 0.51 0.56 0.64 0.66 0.62 0.62 0.67 0.70 0.68 0.66 0.70 0.78 0.83 0.93 1.07 1.23 1.19 1.13 1.31 1.08 0.76 0.81 1.13 1.35 1.37 1.16 0.96 0.89
1.52 1.34 1.19 0.95 0.71 0.70 0.63 0.53 0.63 0.59 0.56 0.61 0.69 0.66 0.80 1.08 1.04 1.12 0.94 0.85 0.90 1.00 1.08 1.08 1.09 1.11 1.09 1.02 1.14 1.33 1.26 1.19 1.41 1.59 1.28 0.94 1.05 1.44 1.59 1.66 1.51 1.36 1.24
1.55 1.38 1.38 1.32 1.02 0.90 0.83 0.99 1.26 1.14 1.14 1.19 1.39 1.25 1.49 1.63 1.47 1.03 1.07 1.17 1.31 1.58 1.70 1.75 1.81 1.72 1.55 1.38 1.51 1.55 1.35 1.38 1.52 1.37 1.18 1.08 1.21 1.58 1.85 1.92 1.76 1.54 1.46
1.78 1.66 1.39 1.50 1.33 1.26 1.33 1.38 1.52 1.61 1.61 1.59 1.67 1.68 1.88 1.74 1.45 1.30 1.53 1.82 1.99 2.14 2.33 2.42 2.41 2.10 2.09 2.21 2.22 2.00 1.87 1.74 1.76 1.47 1.12 1.24 1.39 1.69 1.96 2.04 1.89 1.75 1.60
2.08 1.96 1.84 1.83 1.80 1.74 1.71 1.61 1.49 1.34 1.37 1.52 1.66 1.70 1.88 1.95 1.94 1.93 2.02 2.12 2.28 2.55 2.94 2.92 2.93 2.78 2.83 2.68 2.49 2.45 2.28 1.98 2.08 2.07 1.58 1.48 1.60 1.91 2.09 2.11 1.99 1.88 1.85
2.79 2.62 2.61 2.68 2.46 2.19 2.02 1.69 1.37 1.25 1.14 1.24 1.37 1.47 1.53 1.78 2.00 2.03 1.88 1.91 1.90 2.11 2.53 2.98 2.99 3.20 3.24 2.94 2.52 2.35 2.41 2.27 2.20 2.10 1.72 1.79 1.98 2.04 2.03 2.01 2.00 1.94 1.95
3.79 3.59 3.39 3.44 2.96 2.55 2.24 1.82 1.55 1.31 1.26 1.19 1.14 1.18 1.39 1.58 1.80 1.76 1.74 1.87 1.92 1.90 2.06 2.45 2.69 3.01 3.04 2.73 2.29 2.14 2.13 2.17 2.04 2.01 1.75 1.77 1.88 1.76 1.79 1.99 2.18 2.22 2.15
4.90 4.50 3.89 3.61 3.27 2.93 2.61 2.10 1.68 1.45 1.23 1.19 1.12 1.10 1.17 1.31 1.49 1.49 1.58 1.55 1.60 1.60 1.64 1.79 2.04 2.31 2.33 2.25 2.19 2.17 2.11 2.02 1.84 1.81 1.85 1.78 1.57 1.61 1.68 1.80 1.97 2.08 2.25
5.70 5.10 4.35 3.65 3.65 3.44 3.06 2.39 1.86 1.54 1.35 1.20 1.10 1.01 0.95 0.99 0.98 1.07 1.13 1.12 1.10 1.03 1.12 1.35 1.46 1.66 1.91 2.07 2.18 2.10 2.06 2.09 1.89 1.82 1.78 1.75 1.72 1.49 1.68 1.75 1.74 1.80 2.05
5.87 5.66 5.00 4.79 4.53 3.85 3.06 2.40 1.92 1.62 1.45 1.27 1.16 1.05 0.97 0.85 0.80 0.87 0.96 1.02 0.82 0.80 0.84 0.82 1.11 1.31 1.54 1.68 1.54 1.69 1.65 1.69 1.62 1.44 1.45 1.34 1.50 1.47 1.54 1.56 1.61 1.59 1.80
4.82 4.72 4.64 4.72 4.22 3.60 2.95 2.40 2.03 1.74 1.45 1.24 1.14 1.12 1.04 0.94 0.85 0.92 0.83 0.79 0.68 0.79 0.91 1.00 1.23 1.21 1.20 1.29 1.17 1.40 1.34 1.24 1.25 1.19 1.08 1.13 1.17 1.06 1.18 1.32 1.37 1.22 1.50
3.25 3.34 3.63 3.84 3.54 3.04 2.60 2.07 1.81 1.67 1.44 1.26 1.13 1.01 1.01 0.93 0.97 0.99 0.83 0.97 0.84 0.84 0.88 0.90 1.03 1.06 0.98 0.94 1.27 1.49 1.26 0.98 0.95 0.85 0.83 0.96 1.02 1.03 1.19 1.33 1.33 1.33 1.23
2.33 2.64 3.01 3.24 3.08 2.54 2.27 2.02 1.84 1.71 1.53 1.45 1.33 1.15 0.99 0.92 0.91 0.81 0.95 0.85 0.86 0.95 0.95 0.96 1.04 1.07 0.95 0.89 1.19 1.50 1.36 1.39 1.28 0.70 0.78 0.88 0.93 1.08 1.13 1.12 1.21 1.37 1.22
2.05 2.19 2.25 2.50 2.69 2.42 2.27 2.18 2.05 1.90 1.65 1.60 1.51 1.30 0.99 0.86 0.85 0.86 0.84 0.83 0.99 0.82 0.99 1.12 1.08 1.08 1.06 0.95 0.96 1.19 1.24 1.28 1.18 0.98 0.81 0.75 0.83 1.04 1.08 1.12 1.08 1.21 1.28
1.43 1.71 1.95 2.19 2.35 2.28 2.15 1.94 1.77 1.56 1.41 1.36 1.35 1.34 1.19 1.04 0.90 0.89 0.84 0.90 0.99 0.86 1.12 0.89 0.92 1.07 1.10 0.95 0.89 0.77 0.78 0.95 1.09 1.14 0.99 0.78 0.79 0.87 0.91 0.87 0.91 1.09 1.16
0.98 1.37 1.79 2.11 2.33 2.21 1.91 1.73 1.71 1.61 1.53 1.45 1.36 1.44 1.30 1.20 1.04 0.90 0.91 0.96 0.93 0.87 0.96 0.99 1.18 1.07 1.03 0.98 0.91 0.83 0.85 0.82 0.72 0.86 1.01 1.01 0.96 0.73 0.65 0.72 0.83 0.98 1.02
0.79 1.02 1.30 1.62 1.88 1.91 1.74 1.64 1.66 1.67 1.64 1.50 1.30 1.25 1.14 1.10 1.08 1.03 1.06 1.05 0.96 0.89 0.92 0.95 1.06 1.07 1.13 1.17 1.01 0.86 0.88 0.81 0.73 0.81 0.78 0.79 0.87 0.70 0.61 0.63 0.71 0.81 0.88

GEFSSE_prec_meanprecacc_174.txt.gz
Total_Precipitation_Accumulation
0.46 0.53 0.72 0.70 0.53 0.48 0.48 0.49 0.51 0.45 0.41 0.43 0.43 0.42 0.38 0.33 0.30 0.29 0.31 0.33 0.34 0.41 0.49 0.56 0.59 0.61 0.70 0.76 0.84 0.89 0.94 1.01 1.16 1.39 1.58 1.62 1.63 1.66 1.85 1.93 1.90 1.49 1.40
0.23 0.33 0.57 0.60 0.48 0.45 0.45 0.45 0.45 0.41 0.39 0.37 0.42 0.46 0.45 0.42 0.35 0.34 0.35 0.37 0.43 0.47 0.47 0.48 0.55 0.53 0.61 0.68 0.75 0.80 0.89 1.03 1.46 1.80 1.97 1.88 1.85 1.88 1.97 1.92 1.87 1.48 1.32
0.14 0.17 0.31 0.47 0.44 0.42 0.39 0.40 0.41 0.38 0.37 0.34 0.35 0.39 0.41 0.42 0.37 0.35 0.39 0.42 0.49 0.50 0.46 0.52 0.57 0.55 0.59 0.66 0.74 0.74 0.90 1.21 1.78 2.37 2.53 2.10 1.72 1.91 1.97 1.90 1.70 1.33 1.13
0.12 0.13 0.17 0.32 0.37 0.36 0.34 0.35 0.36 0.33 0.29 0.28 0.29 0.33 0.37 0.42 0.40 0.37 0.39 0.43 0.49 0.47 0.48 0.56 0.54 0.58 0.56 0.59 0.67 0.85 1.08 1.31 1.79 2.26 2.39 1.74 1.39 1.43 1.62 1.47 1.31 1.13 0.92
0.16 0.14 0.19 0.25 0.26 0.29 0.31 0.32 0.34 0.33 0.30 0.26 0.26 0.31 0.35 0.40 0.40 0.39 0.44 0.46 0.50 0.52 0.51 0.52 0.54 0.60 0.60 0.57 0.69 0.93 1.22 1.50 1.80 2.03 1.74 1.95 1.84 1.47 1.35 1.21 1.17 0.97 0.75
0.17 0.14 0.19 0.25 0.22 0.23 0.25 0.28 0.32 0.32 0.30 0.29 0.30 0.33 0.34 0.38 0.42 0.41 0.41 0.45 0.52 0.56 0.58 0.59 0.60 0.61 0.60 0.58 0.69 0.95 1.25 1.63 1.78 1.32 1.05 1.42 1.42 1.31 1.23 1.18 1.07 0.89 0.72
0.22 0.15 0.18 0.28 0.25 0.23 0.25 0.30 0.32 0.29 0.27 0.27 0.30 0.34 0.37 0.40 0.42 0.42 0.44 0.48 0.52 0.57 0.56 0.60 0.59 0.58 0.62 0.65 0.70 0.91 1.30 1.67 1.56 1.03 0.86 1.12 1.07 1.11 1.19 1.19 1.10 0.91 0.73
0.31 0.21 0.23 0.33 0.34 0.31 0.31 0.34 0.34 0.29 0.28 0.28 0.30 0.35 0.39 0.41 0.42 0.48 0.52 0.55 0.53 0.57 0.57 0.54 0.55 0.53 0.55 0.68 0.80 0.91 1.20 1.35 1.09 0.90 0.81 0.90 0.76 1.03 1.17 1.08 1.00 0.90 0.79
0.59 0.47 0.38 0.37 0.37 0.36 0.41 0.42 0.39 0.34 0.33 0.33 0.37 0.36 0.38 0.39 0.43 0.48 0.60 0.63 0.57 0.59 0.59 0.56 0.55 0.60 0.62 0.70 0.82 0.98 1.21 1.41 1.21 1.08 0.86 0.81 0.72 1.03 1.27 1.09 0.92 0.80 0.80
1.20 0.98 0.72 0.51 0.52 0.45 0.43 0.46 0.45 0.39 0.37 0.37 0.39 0.39 0.45 0.54 0.58 0.66 0.68 0.65 0.65 0.71 0.73 0.71 0.69 0.71 0.80 0.87 0.97 1.11 1.28 1.26 1.18 1.36 1.13 0.79 0.82 1.14 1.35 1.38 1.16 0.96 0.90
1.55 1.36 1.21 0.97 0.72 0.71 0.63 0.53 0.63 0.59 0.57 0.63 0.71 0.69 0.83 1.10 1.05 1.13 0.95 0.87 0.94 1.06 1.13 1.11 1.12 1.12 1.11 1.05 1.18 1.38 1.31 1.24 1.46 1.64 1.31 0.96 1.08 1.45 1.60 1.67 1.51 1.36 1.25
1.57 1.40 1.39 1.34 1.04 0.92 0.85 1.00 1.26 1.14 1.14 1.20 1.41 1.27 1.50 1.64 1.49 1.04 1.09 1.20 1.34 1.62 1.75 1.79 1.84 1.74 1.56 1.40 1.54 1.59 1.39 1.43 1.57 1.41 1.21 1.10 1.23 1.60 1.86 1.92 1.76 1.55 1.47
1.80 1.68 1.40 1.51 1.35 1.28 1.35 1.40 1.53 1.62 1.61 1.60 1.69 1.70 1.90 1.76 1.48 1.32 1.54 1.84 2.01 2.16 2.35 2.45 2.43 2.11 2.10 2.23 2.24 2.03 1.93 1.80 1.82 1.52 1.16 1.26 1.41 1.71 1.98 2.05 1.90 1.76 1.61
2.11 1.99 1.86 1.84 1.81 1.76 1.73 1.64 1.52 1.36 1.39 1.53 1.67 1.71 1.90 1.97 1.97 1.95 2.04 2.14 2.29 2.57 2.96 2.94 2.95 2.80 2.86 2.71 2.53 2.49 2.32 2.01 2.13 2.14 1.61 1.51 1.63 1.94 2.11 2.12 2.00 1.89 1.86
2.80 2.64 2.63 2.69 2.47 2.20 2.04 1.71 1.40 1.28 1.16 1.26 1.38 1.49 1.55 1.81 2.03 2.06 1.90 1.93 1.92 2.13 2.55 3.01 3.01 3.23 3.27 2.98 2.56 2.39 2.43 2.29 2.24 2.16 1.74 1.81 2.00 2.06 2.06 2.03 2.01 1.95 1.95
3.79 3.61 3.40 3.45 2.97 2.56 2.25 1.84 1.57 1.33 1.29 1.23 1.16 1.22 1.41 1.60 1.83 1.79 1.75 1.89 1.94 1.92 2.08 2.48 2.72 3.04 3.07 2.77 2.33 2.16 2.16 2.20 2.08 2.05 1.77 1.79 1.90 1.79 1.81 2.02 2.20 2.23 2.17
4.91 4.51 3.92 3.63 3.28 2.95 2.62 2.11 1.71 1.48 1.26 1.23 1.17 1.16 1.20 1.33 1.51 1.51 1.60 1.57 1.62 1.62 1.67 1.83 2.08 2.36 2.38 2.29 2.23 2.20 2.15 2.05 1.88 1.85 1.90 1.82 1.60 1.64 1.71 1.83 2.00 2.11 2.28
5.71 5.11 4.38 3.68 3.67 3.46 3.09 2.42 1.90 1.58 1.42 1.27 1.19 1.09 1.00 1.03 1.01 1.08 1.15 1.14 1.11 1.05 1.15 1.41 1.52 1.73 1.97 2.11 2.23 2.14 2.10 2.13 1.94 1.87 1.84 1.84 1.79 1.53 1.71 1.77 1.77 1.83 2.08
5.88 5.67 5.02 4.81 4.55 3.87 3.08 2.44 1.97 1.66 1.50 1.32 1.22 1.12 1.02 0.90 0.85 0.90 0.97 1.04 0.84 0.84 0.88 0.88 1.20 1.39 1.61 1.73 1.58 1.74 1.70 1.75 1.67 1.49 1.50 1.38 1.54 1.51 1.58 1.59 1.64 1.63 1.83
4.82 4.72 4.65 4.73 4.23 3.61 2.96 2.43 2.08 1.79 1.49 1.28 1.18 1.16 1.07 0.98 0.90 0.96 0.86 0.82 0.72 0.84 0.98 1.09 1.33 1.29 1.26 1.35 1.23 1.47 1.40 1.31 1.32 1.25 1.14 1.17 1.21 1.09 1.23 1.38 1.43 1.28 1.52
3.25 3.35 3.65 3.85 3.55 3.05 2.61 2.09 1.84 1.71 1.50 1.30 1.16 1.04 1.05 0.96 1.02 1.04 0.87 1.03 0.89 0.90 0.93 0.97 1.09 1.13 1.04 1.01 1.37 1.58 1.33 1.06 1.01 0.90 0.88 1.00 1.06 1.08 1.26 1.42 1.40 1.36 1.24
2.33 2.65 3.01 3.25 3.09 2.55 2.29 2.03 1.85 1.73 1.57 1.48 1.36 1.20 1.03 0.98 0.99 0.88 1.03 0.90 0.91 1.00 1.03 1.03 1.12 1.15 1.02 0.98 1.30 1.60 1.43 1.45 1.34 0.76 0.83 0.91 0.98 1.15 1.21 1.19 1.29 1.43 1.27
2.05 2.19 2.25 2.50 2.69 2.43 2.28 2.19 2.06 1.91 1.67 1.63 1.55 1.35 1.04 0.93 0.94 0.95 0.93 0.89 1.04 0.86 1.04 1.17 1.16 1.20 1.16 1.04 1.06 1.29 1.32 1.33 1.22 1.02 0.85 0.79 0.90 1.12 1.15 1.20 1.16 1.30 1.37
1.43 1.71 1.96 2.20 2.36 2.28 2.16 1.95 1.78 1.57 1.43 1.38 1.38 1.37 1.23 1.10 0.98 0.96 0.89 0.95 1.03 0.89 1.16 0.93 0.98 1.16 1.21 1.06 0.98 0.85 0.87 1.04 1.16 1.18 1.02 0.84 0.86 0.96 1.00 0.96 1.00 1.18 1.23
0.98 1.37 1.79 2.11 2.34 2.23 1.93 1.75 1.72 1.61 1.54 1.46 1.37 1.46 1.32 1.24 1.08 0.95 0.96 1.01 0.98 0.91 1.01 1.04 1.24 1.15 1.11 1.06 1.00 0.93 0.94 0.90 0.79 0.91 1.05 1.05 1.01 0.79 0.71 0.78 0.89 1.03 1.07
0.79 1.02 1.30 1.62 1.90 1.93 1.76 1.66 1.68 1.67 1.65 1.52 1.31 1.26 1.15 1.12 1.11 1.06 1.10 1.10 1.00 0.92 0.96 1.00 1.11 1.12 1.18 1.24 1.08 0.95 0.97 0.90 0.79 0.87 0.83 0.82 0.89 0.72 0.64 0.67 0.75 0.85 0.92

GEFSSE_prec_meanprecacc_180.txt.gz
Total_Precipitation_Accumulation
0.49 0.58 0.80 0.76 0.57 0.52 0.52 0.52 0.54 0.49 0.46 0.48 0.48 0.47 0.43 0.39 0.34 0.33 0.34 0.35 0.37 0.44 0.53 0.60 0.64 0.65 0.73 0.81 0.90 0.97 1.00 1.07 1.24 1.47 1.63 1.66 1.68 1.72 1.89 1.96 1.92 1.51 1.43
0.26 0.37 0.62 0.65 0.51 0.48 0.48 0.47 0.48 0.44 0.44 0.43 0.47 0.51 0.49 0.47 0.40 0.37 0.38 0.40 0.45 0.50 0.51 0.53 0.60 0.58 0.65 0.72 0.82 0.87 0.95 1.09 1.53 1.87 2.02 1.93 1.93 1.93 1.99 1.94 1.89 1.50 1.35
0.17 0.20 0.34 0.49 0.47 0.44 0.42 0.43 0.44 0.42 0.41 0.38 0.38 0.43 0.45 0.46 0.40 0.37 0.40 0.45 0.51 0.52 0.48 0.55 0.59 0.58 0.64 0.72 0.80 0.80 0.95 1.27 1.86 2.44 2.57 2.12 1.77 1.96 2.00 1.92 1.72 1.35 1.17
0.14 0.15 0.18 0.34 0.39 0.38 0.37 0.37 0.39 0.37 0.33 0.32 0.32 0.37 0.40 0.45 0.43 0.39 0.41 0.45 0.51 0.49 0.50 0.58 0.58 0.63 0.62 0.64 0.74 0.92 1.13 1.38 1.89 2.33 2.40 1.75 1.41 1.47 1.67 1.50 1.33 1.16 0.97
0.18 0.16 0.20 0.27 0.28 0.30 0.32 0.34 0.37 0.36 0.33 0.29 0.28 0.33 0.37 0.42 0.43 0.43 0.46 0.48 0.53 0.54 0.52 0.54 0.58 0.66 0.66 0.62 0.74 0.99 1.30 1.58 1.89 2.07 1.76 1.95 1.85 1.50 1.38 1.24 1.20 0.99 0.78
0.19 0.15 0.21 0.27 0.23 0.24 0.26 0.29 0.33 0.33 0.31 0.31 0.32 0.35 0.36 0.41 0.45 0.45 0.42 0.46 0.54 0.58 0.60 0.62 0.64 0.67 0.64 0.62 0.73 1.01 1.33 1.71 1.82 1.33 1.06 1.42 1.42 1.34 1.26 1.21 1.09 0.92 0.74
0.23 0.16 0.20 0.31 0.27 0.25 0.28 0.32 0.34 0.32 0.30 0.30 0.32 0.36 0.40 0.42 0.45 0.45 0.46 0.49 0.55 0.59 0.58 0.62 0.63 0.63 0.67 0.70 0.74 0.96 1.37 1.72 1.58 1.03 0.87 1.13 1.07 1.13 1.22 1.22 1.13 0.94 0.75
0.32 0.22 0.25 0.35 0.36 0.32 0.34 0.37 0.36 0.31 0.30 0.33 0.34 0.38 0.42 0.45 0.48 0.52 0.54 0.58 0.56 0.61 0.60 0.57 0.60 0.58 0.60 0.73 0.85 0.96 1.27 1.40 1.11 0.91 0.83 0.91 0.78 1.05 1.19 1.11 1.03 0.92 0.81
0.60 0.48 0.39 0.38 0.39 0.39 0.44 0.45 0.41 0.37 0.36 0.37 0.41 0.41 0.42 0.43 0.47 0.51 0.63 0.68 0.62 0.63 0.64 0.62 0.60 0.64 0.66 0.77 0.89 1.04 1.27 1.46 1.23 1.10 0.88 0.83 0.73 1.05 1.29 1.11 0.94 0.83 0.83
1.21 0.99 0.73 0.51 0.53 0.48 0.46 0.49 0.47 0.41 0.41 0.43 0.45 0.44 0.50 0.58 0.60 0.69 0.72 0.70 0.72 0.77 0.79 0.78 0.74 0.75 0.85 0.94 1.05 1.18 1.34 1.30 1.21 1.38 1.14 0.80 0.84 1.15 1.37 1.40 1.18 0.98 0.91
1.56 1.37 1.22 0.98 0.72 0.72 0.66 0.56 0.66 0.61 0.59 0.67 0.78 0.75 0.87 1.13 1.06 1.16 0.99 0.91 0.99 1.14 1.19 1.18 1.16 1.15 1.15 1.11 1.26 1.45 1.35 1.26 1.48 1.66 1.33 0.97 1.10 1.48 1.62 1.69 1.53 1.37 1.27
1.58 1.40 1.40 1.35 1.05 0.92 0.86 1.03 1.28 1.15 1.15 1.21 1.42 1.29 1.53 1.65 1.50 1.06 1.12 1.25 1.38 1.70 1.82 1.86 1.89 1.78 1.59 1.44 1.60 1.63 1.42 1.45 1.59 1.43 1.22 1.12 1.26 1.63 1.89 1.94 1.78 1.56 1.48
1.81 1.69 1.41 1.52 1.36 1.29 1.37 1.42 1.54 1.63 1.62 1.61 1.70 1.71 1.91 1.77 1.49 1.34 1.56 1.88 2.05 2.22 2.42 2.50 2.48 2.13 2.11 2.26 2.27 2.06 1.95 1.82 1.83 1.54 1.17 1.28 1.44 1.75 2.02 2.09 1.92 1.78 1.62
2.12 2.01 1.88 1.85 1.82 1.77 1.75 1.65 1.52 1.37 1.40 1.54 1.67 1.71 1.90 1.98 1.97 1.96 2.05 2.16 2.32 2.62 3.00 2.96 2.97 2.82 2.88 2.74 2.55 2.51 2.33 2.02 2.15 2.17 1.63 1.54 1.66 2.00 2.17 2.17 2.04 1.91 1.88
2.82 2.67 2.65 2.70 2.48 2.21 2.06 1.73 1.41 1.29 1.17 1.27 1.38 1.49 1.56 1.81 2.03 2.06 1.91 1.95 1.96 2.16 2.58 3.03 3.03 3.24 3.29 3.00 2.59 2.42 2.45 2.31 2.26 2.18 1.76 1.84 2.05 2.11 2.11 2.09 2.06 1.99 1.99
3.81 3.63 3.42 3.46 2.99 2.59 2.28 1.87 1.59 1.35 1.31 1.24 1.17 1.23 1.42 1.60 1.83 1.80 1.76 1.91 1.98 1.96 2.13 2.52 2.74 3.05 3.08 2.79 2.35 2.19 2.18 2.22 2.10 2.08 1.79 1.81 1.95 1.83 1.85 2.07 2.27 2.31 2.24
4.92 4.52 3.93 3.64 3.30 2.97 2.65 2.14 1.74 1.51 1.29 1.24 1.18 1.17 1.21 1.34 1.52 1.52 1.60 1.58 1.65 1.65 1.70 1.87 2.11 2.39 2.40 2.31 2.25 2.22 2.17 2.07 1.90 1.88 1.93 1.85 1.62 1.67 1.76 1.89 2.07 2.18 2.34
5.71 5.12 4.39 3.69 3.69 3.48 3.11 2.44 1.93 1.61 1.45 1.30 1.22 1.11 1.01 1.04 1.03 1.10 1.17 1.15 1.13 1.07 1.18 1.44 1.56 1.76 2.00 2.14 2.25 2.16 2.11 2.15 1.96 1.89 1.87 1.86 1.81 1.54 1.75 1.84 1.83 1.88 2.15
5.88 5.67 5.03 4.82 4.56 3.88 3.11 2.47 2.01 1.71 1.54 1.36 1.27 1.15 1.05 0.94 0.90 0.96 1.03 1.10 0.90 0.89 0.92 0.91 1.23 1.41 1.64 1.76 1.61 1.76 1.72 1.77 1.70 1.51 1.52 1.40 1.57 1.53 1.61 1.62 1.70 1.68 1.89
4.82 4.72 4.65 4.74 4.24 3.62 2.98 2.46 2.13 1.84 1.54 1.34 1.24 1.21 1.12 1.04 0.97 1.05 0.94 0.91 0.80 0.91 1.04 1.15 1.38 1.32 1.28 1.39 1.27 1.50 1.42 1.32 1.34 1.28 1.17 1.20 1.24 1.12 1.27 1.41 1.47 1.32 1.58
3.25 3.35 3.65 3.85 3.55 3.06 2.62 2.10 1.86 1.76 1.56 1.37 1.23 1.11 1.11 1.04 1.11 1.13 0.95 1.11 0.99 0.97 1.01 1.05 1.17 1.18 1.08 1.06 1.43 1.63 1.37 1.07 1.03 0.93 0.90 1.02 1.08 1.11 1.30 1.46 1.44 1.39 1.27
2.33 2.65 3.01 3.25 3.09 2.55 2.29 2.04 1.87 1.76 1.63 1.57 1.42 1.27 1.11 1.06 1.07 0.97 1.11 0.99 1.00 1.07 1.10 1.13 1.21 1.21 1.08 1.05 1.35 1.67 1.48 1.47 1.35 0.76 0.84 0.94 1.00 1.18 1.24 1.23 1.33 1.47 1.30
2.05 2.20 2.25 2.50 2.70 2.43 2.28 2.19 2.07 1.93 1.71 1.72 1.61 1.42 1.11 0.99 1.01 1.03 1.01 0.98 1.11 0.92 1.10 1.25 1.23 1.26 1.22 1.11 1.12 1.36 1.39 1.36 1.24 1.03 0.85 0.81 0.92 1.14 1.17 1.22 1.20 1.33 1.42
1.43 1.71 1.96 2.20 2.37 2.30 2.17 1.96 1.78 1.59 1.46 1.42 1.42 1.41 1.29 1.17 1.03 1.01 0.96 1.04 1.13 0.97 1.21 1.00 1.05 1.22 1.29 1.14 1.07 0.94 0.94 1.09 1.21 1.21 1.04 0.85 0.87 0.97 1.01 0.98 1.02 1.21 1.26
0.98 1.37 1.79 2.12 2.34 2.24 1.94 1.76 1.73 1.63 1.56 1.49 1.40 1.48 1.36 1.30 1.12 0.99 1.01 1.07 1.07 1.00 1.07 1.10 1.31 1.22 1.18 1.14 1.11 1.04 1.03 0.97 0.83 0.95 1.08 1.08 1.03 0.81 0.73 0.80 0.91 1.05 1.10
0.79 1.02 1.30 1.62 1.90 1.93 1.77 1.67 1.69 1.69 1.66 1.53 1.33 1.28 1.18 1.16 1.14 1.09 1.14 1.14 1.08 1.00 1.02 1.04 1.15 1.16 1.22 1.28 1.14 1.02 1.05 0.98 0.88 0.93 0.87 0.85 0.92 0.74 0.65 0.69 0.77 0.87 0.95

GEFSSE_prec_meanprecacc_186.txt.gz
Total_Precipitation_Accumulation
0.54 0.65 0.87 0.85 0.68 0.61 0.62 0.64 0.64 0.60 0.55 0.58 0.58 0.56 0.52 0.45 0.40 0.39 0.40 0.41 0.42 0.49 0.57 0.66 0.69 0.69 0.77 0.85 0.95 1.01 1.05 1.14 1.29 1.51 1.67 1.69 1.71 1.76 1.92 1.99 1.94 1.52 1.44
0.30 0.43 0.69 0.73 0.59 0.56 0.56 0.57 0.58 0.54 0.52 0.51 0.56 0.61 0.58 0.55 0.47 0.44 0.43 0.45 0.50 0.55 0.57 0.58 0.65 0.62 0.69 0.77 0.87 0.91 0.99 1.17 1.59 1.92 2.07 1.98 1.98 1.97 2.02 1.96 1.91 1.52 1.37
0.20 0.24 0.38 0.56 0.54 0.50 0.49 0.51 0.53 0.51 0.48 0.46 0.49 0.54 0.53 0.53 0.47 0.43 0.46 0.49 0.55 0.56 0.52 0.60 0.64 0.61 0.68 0.77 0.85 0.85 1.01 1.33 1.92 2.51 2.63 2.18 1.82 2.00 2.04 1.96 1.74 1.37 1.19
0.16 0.18 0.20 0.38 0.46 0.44 0.43 0.43 0.47 0.44 0.38 0.38 0.41 0.46 0.46 0.50 0.48 0.44 0.46 0.49 0.53 0.51 0.53 0.63 0.63 0.66 0.66 0.69 0.80 0.98 1.20 1.44 1.96 2.40 2.45 1.79 1.43 1.50 1.71 1.54 1.36 1.19 0.99
0.20 0.18 0.23 0.32 0.33 0.37 0.38 0.39 0.42 0.43 0.39 0.36 0.36 0.42 0.44 0.48 0.48 0.46 0.50 0.52 0.55 0.56 0.55 0.58 0.64 0.72 0.71 0.68 0.79 1.04 1.37 1.67 1.96 2.11 1.77 1.97 1.87 1.52 1.41 1.26 1.23 1.02 0.79
0.21 0.17 0.24 0.30 0.28 0.30 0.32 0.34 0.38 0.39 0.38 0.38 0.39 0.42 0.46 0.51 0.54 0.50 0.46 0.51 0.58 0.62 0.63 0.65 0.70 0.74 0.70 0.67 0.78 1.05 1.38 1.77 1.87 1.36 1.07 1.43 1.43 1.36 1.28 1.23 1.11 0.93 0.76
0.25 0.18 0.23 0.36 0.33 0.31 0.34 0.37 0.39 0.39 0.40 0.39 0.41 0.43 0.50 0.55 0.54 0.51 0.50 0.54 0.59 0.64 0.66 0.70 0.69 0.71 0.73 0.75 0.80 1.01 1.42 1.77 1.61 1.06 0.88 1.14 1.08 1.14 1.23 1.24 1.15 0.97 0.77
0.33 0.24 0.27 0.41 0.43 0.38 0.39 0.41 0.42 0.38 0.40 0.41 0.43 0.46 0.51 0.54 0.57 0.59 0.61 0.63 0.59 0.65 0.68 0.67 0.66 0.63 0.66 0.79 0.91 1.01 1.33 1.44 1.15 0.95 0.86 0.92 0.78 1.06 1.20 1.11 1.05 0.94 0.83
0.60 0.49 0.41 0.42 0.43 0.44 0.49 0.51 0.46 0.42 0.44 0.44 0.49 0.50 0.51 0.52 0.55 0.58 0.69 0.73 0.66 0.68 0.69 0.71 0.68 0.69 0.71 0.83 0.95 1.09 1.32 1.50 1.29 1.15 0.90 0.85 0.74 1.06 1.30 1.12 0.95 0.84 0.84
1.21 1.00 0.75 0.54 0.56 0.51 0.52 0.55 0.52 0.46 0.46 0.50 0.52 0.50 0.57 0.65 0.68 0.77 0.79 0.75 0.78 0.83 0.86 0.89 0.84 0.80 0.91 1.01 1.11 1.23 1.38 1.36 1.26 1.42 1.18 0.83 0.85 1.16 1.38 1.41 1.20 1.00 0.92
1.56 1.38 1.23 1.00 0.74 0.75 0.70 0.60 0.70 0.65 0.63 0.73 0.86 0.82 0.93 1.21 1.15 1.24 1.05 0.97 1.05 1.21 1.28 1.29 1.26 1.22 1.21 1.17 1.32 1.49 1.40 1.32 1.53 1.70 1.39 1.01 1.12 1.50 1.64 1.70 1.54 1.40 1.29
1.59 1.41 1.41 1.35 1.06 0.95 0.89 1.07 1.33 1.19 1.20 1.26 1.48 1.36 1.58 1.72 1.58 1.14 1.21 1.33 1.47 1.80 1.93 1.96 1.98 1.82 1.62 1.50 1.65 1.68 1.47 1.49 1.63 1.45 1.26 1.15 1.29 1.66 1.93 1.98 1.80 1.58 1.51
1.82 1.70 1.41 1.52 1.37 1.32 1.40 1.46 1.59 1.69 1.68 1.66 1.75 1.76 1.96 1.81 1.54 1.41 1.67 2.00 2.17 2.33 2.52 2.59 2.55 2.16 2.15 2.32 2.31 2.09 1.98 1.84 1.85 1.55 1.19 1.31 1.46 1.78 2.08 2.15 1.96 1.81 1.65
2.12 2.01 1.88 1.85 1.84 1.79 1.77 1.67 1.56 1.42 1.45 1.58 1.72 1.74 1.94 2.01 2.03 2.02 2.12 2.22 2.40 2.73 3.10 3.05 3.04 2.86 2.91 2.78 2.58 2.54 2.36 2.05 2.18 2.19 1.67 1.57 1.70 2.05 2.23 2.23 2.10 1.96 1.92
2.83 2.67 2.66 2.71 2.50 2.24 2.10 1.75 1.44 1.34 1.22 1.32 1.42 1.52 1.59 1.85 2.09 2.14 2.00 2.03 2.04 2.26 2.66 3.12 3.11 3.29 3.33 3.03 2.62 2.44 2.47 2.33 2.29 2.21 1.79 1.88 2.10 2.16 2.17 2.15 2.12 2.05 2.05
3.81 3.63 3.42 3.46 3.00 2.60 2.32 1.91 1.64 1.40 1.37 1.29 1.22 1.26 1.46 1.67 1.91 1.88 1.85 2.03 2.09 2.05 2.21 2.60 2.81 3.13 3.15 2.84 2.40 2.22 2.20 2.24 2.13 2.10 1.83 1.85 1.98 1.87 1.89 2.12 2.32 2.37 2.30
4.92 4.53 3.93 3.65 3.30 2.98 2.68 2.19 1.78 1.56 1.34 1.30 1.23 1.21 1.26 1.42 1.63 1.62 1.68 1.70 1.77 1.75 1.80 1.96 2.19 2.46 2.47 2.38 2.32 2.27 2.20 2.10 1.93 1.91 1.96 1.88 1.65 1.70 1.79 1.93 2.12 2.24 2.40
5.72 5.13 4.39 3.69 3.70 3.51 3.15 2.49 1.99 1.66 1.50 1.36 1.27 1.17 1.07 1.12 1.13 1.22 1.25 1.24 1.26 1.17 1.27 1.55 1.65 1.85 2.11 2.25 2.37 2.24 2.16 2.19 1.99 1.93 1.90 1.89 1.85 1.57 1.79 1.87 1.87 1.92 2.20
5.88 5.68 5.04 4.82 4.57 3.91 3.14 2.51 2.06 1.76 1.58 1.40 1.32 1.21 1.11 1.00 0.97 1.05 1.12 1.20 0.99 0.97 1.03 0.99 1.31 1.50 1.75 1.88 1.69 1.83 1.76 1.80 1.73 1.53 1.54 1.42 1.60 1.57 1.66 1.67 1.73 1.71 1.93
4.82 4.73 4.66 4.75 4.25 3.65 3.01 2.48 2.15 1.87 1.57 1.37 1.27 1.26 1.18 1.10 1.03 1.12 1.00 1.00 0.89 1.01 1.15 1.25 1.47 1.41 1.38 1.49 1.33 1.54 1.46 1.35 1.37 1.30 1.18 1.21 1.26 1.14 1.30 1.46 1.53 1.35 1.61
3.25 3.36 3.66 3.86 3.56 3.07 2.64 2.12 1.87 1.78 1.59 1.41 1.27 1.15 1.16 1.09 1.18 1.24 1.01 1.22 1.09 1.08 1.13 1.16 1.26 1.26 1.16 1.15 1.51 1.71 1.39 1.08 1.04 0.94 0.92 1.03 1.10 1.13 1.32 1.51 1.51 1.46 1.32
2.33 2.65 3.02 3.26 3.10 2.56 2.31 2.06 1.89 1.78 1.66 1.60 1.45 1.32 1.17 1.13 1.15 1.05 1.21 1.09 1.10 1.19 1.23 1.26 1.33 1.32 1.17 1.14 1.46 1.77 1.56 1.52 1.38 0.77 0.85 0.95 1.03 1.21 1.27 1.27 1.38 1.54 1.34
2.05 2.20 2.25 2.51 2.70 2.44 2.29 2.20 2.08 1.95 1.73 1.75 1.65 1.47 1.17 1.07 1.09 1.11 1.10 1.08 1.22 1.04 1.25 1.40 1.36 1.41 1.36 1.23 1.24 1.49 1.51 1.47 1.31 1.06 0.86 0.82 0.93 1.17 1.20 1.26 1.23 1.37 1.46
1.43 1.71 1.96 2.20 2.37 2.31 2.18 1.97 1.80 1.60 1.48 1.46 1.48 1.48 1.35 1.23 1.08 1.07 1.07 1.17 1.27 1.11 1.36 1.12 1.16 1.36 1.44 1.27 1.18 1.05 1.08 1.23 1.33 1.30 1.11 0.89 0.89 0.99 1.04 1.01 1.05 1.24 1.30
0.98 1.37 1.79 2.12 2.35 2.25 1.96 1.78 1.75 1.64 1.58 1.51 1.42 1.56 1.43 1.35 1.16 1.02 1.09 1.17 1.19 1.12 1.18 1.19 1.40 1.31 1.28 1.25 1.22 1.15 1.15 1.10 0.96 1.07 1.17 1.17 1.09 0.85 0.76 0.83 0.95 1.09 1.14
0.79 1.02 1.30 1.62 1.90 1.94 1.78 1.69 1.71 1.71 1.68 1.54 1.34 1.30 1.22 1.20 1.17 1.13 1.19 1.21 1.15 1.07 1.09 1.12 1.23 1.25 1.31 1.37 1.24 1.10 1.14 1.10 1.00 1.06 0.95 0.93 1.00 0.78 0.68 0.71 0.79 0.90 0.98

GEFSSE_prec_meanprecacc_192.txt.gz
Total_Precipitation_Accumulation
0.60 0.72 0.95 0.93 0.76 0.72 0.77 0.79 0.75 0.72 0.65 0.67 0.67 0.64 0.59 0.52 0.46 0.45 0.45 0.45 0.45 0.53 0.62 0.71 0.74 0.73 0.81 0.89 0.99 1.06 1.09 1.18 1.32 1.53 1.69 1.71 1.73 1.78 1.94 2.01 1.98 1.54 1.46
0.33 0.48 0.74 0.79 0.67 0.66 0.69 0.71 0.71 0.66 0.63 0.61 0.66 0.71 0.67 0.62 0.53 0.49 0.48 0.49 0.54 0.59 0.61 0.63 0.69 0.67 0.73 0.81 0.92 0.97 1.04 1.20 1.61 1.94 2.09 2.00 1.99 1.99 2.05 2.00 1.97 1.55 1.39
0.24 0.28 0.42 0.62 0.61 0.58 0.58 0.62 0.64 0.60 0.58 0.56 0.58 0.64 0.62 0.60 0.52 0.48 0.51 0.54 0.60 0.60 0.56 0.65 0.69 0.67 0.72 0.82 0.90 0.91 1.06 1.36 1.96 2.54 2.68 2.22 1.84 2.02 2.07 1.99 1.77 1.39 1.22
0.19 0.21 0.24 0.43 0.52 0.52 0.51 0.54 0.57 0.55 0.47 0.47 0.49 0.53 0.52 0.55 0.52 0.49 0.51 0.55 0.58 0.56 0.58 0.68 0.69 0.72 0.71 0.74 0.84 1.03 1.26 1.48 2.00 2.46 2.54 1.86 1.46 1.51 1.73 1.56 1.38 1.21 1.02
0.22 0.19 0.25 0.35 0.38 0.43 0.45 0.47 0.51 0.53 0.48 0.45 0.44 0.50 0.51 0.51 0.52 0.50 0.54 0.56 0.58 0.59 0.59 0.61 0.70 0.77 0.76 0.72 0.83 1.09 1.42 1.71 2.00 2.17 1.84 2.04 1.92 1.54 1.43 1.28 1.25 1.03 0.81
0.23 0.18 0.25 0.33 0.31 0.34 0.38 0.41 0.45 0.46 0.46 0.45 0.46 0.51 0.56 0.59 0.62 0.54 0.51 0.55 0.61 0.65 0.66 0.68 0.76 0.80 0.74 0.71 0.82 1.09 1.43 1.81 1.91 1.41 1.12 1.48 1.47 1.38 1.29 1.24 1.12 0.95 0.78
0.27 0.20 0.24 0.38 0.35 0.34 0.38 0.43 0.44 0.44 0.46 0.45 0.47 0.49 0.57 0.64 0.62 0.57 0.56 0.59 0.62 0.67 0.69 0.73 0.74 0.76 0.76 0.80 0.83 1.05 1.46 1.81 1.66 1.10 0.92 1.18 1.12 1.16 1.24 1.25 1.16 0.98 0.78
0.34 0.24 0.27 0.42 0.45 0.41 0.42 0.45 0.47 0.45 0.47 0.49 0.48 0.51 0.57 0.62 0.63 0.64 0.66 0.68 0.63 0.67 0.70 0.70 0.70 0.67 0.69 0.82 0.93 1.04 1.36 1.48 1.19 0.98 0.88 0.96 0.80 1.06 1.21 1.13 1.06 0.95 0.84
0.61 0.49 0.41 0.44 0.46 0.46 0.53 0.55 0.50 0.49 0.51 0.50 0.53 0.55 0.56 0.58 0.61 0.62 0.73 0.77 0.71 0.71 0.72 0.74 0.73 0.72 0.73 0.86 0.97 1.11 1.35 1.54 1.33 1.21 0.95 0.89 0.76 1.07 1.30 1.12 0.96 0.85 0.85
1.21 1.00 0.77 0.57 0.60 0.56 0.58 0.59 0.56 0.48 0.48 0.52 0.56 0.55 0.60 0.69 0.73 0.82 0.83 0.79 0.82 0.90 0.92 0.93 0.88 0.83 0.94 1.03 1.13 1.24 1.41 1.40 1.30 1.47 1.23 0.87 0.86 1.17 1.39 1.42 1.22 1.02 0.95
1.58 1.40 1.25 1.01 0.78 0.81 0.76 0.64 0.72 0.66 0.64 0.75 0.90 0.86 0.97 1.29 1.25 1.35 1.12 1.01 1.09 1.27 1.34 1.35 1.31 1.25 1.23 1.20 1.35 1.51 1.43 1.36 1.57 1.74 1.42 1.03 1.13 1.51 1.65 1.72 1.56 1.42 1.32
1.62 1.43 1.42 1.36 1.07 0.98 0.93 1.12 1.39 1.24 1.25 1.31 1.55 1.42 1.65 1.80 1.71 1.26 1.30 1.40 1.52 1.86 1.99 2.01 2.03 1.86 1.65 1.54 1.68 1.70 1.50 1.53 1.66 1.48 1.28 1.16 1.31 1.67 1.94 1.99 1.81 1.60 1.54
1.84 1.70 1.42 1.53 1.39 1.33 1.44 1.51 1.66 1.77 1.77 1.75 1.83 1.85 2.04 1.86 1.61 1.54 1.82 2.11 2.25 2.40 2.59 2.63 2.58 2.19 2.18 2.36 2.35 2.13 2.01 1.86 1.86 1.56 1.21 1.33 1.48 1.79 2.09 2.17 1.98 1.83 1.68
2.13 2.02 1.88 1.86 1.86 1.81 1.82 1.73 1.61 1.47 1.51 1.64 1.80 1.82 2.00 2.08 2.11 2.11 2.24 2.35 2.51 2.83 3.19 3.12 3.11 2.91 2.95 2.80 2.59 2.55 2.37 2.06 2.19 2.21 1.72 1.59 1.71 2.06 2.24 2.25 2.12 1.98 1.94
2.83 2.68 2.66 2.72 2.51 2.27 2.16 1.82 1.48 1.38 1.28 1.36 1.48 1.60 1.64 1.92 2.17 2.22 2.09 2.10 2.09 2.31 2.71 3.19 3.17 3.36 3.38 3.07 2.64 2.45 2.48 2.34 2.29 2.23 1.86 1.91 2.11 2.17 2.18 2.17 2.13 2.08 2.07
3.82 3.63 3.43 3.48 3.02 2.64 2.36 1.97 1.70 1.44 1.41 1.33 1.27 1.31 1.51 1.74 1.99 1.96 1.93 2.11 2.15 2.10 2.26 2.67 2.87 3.21 3.22 2.91 2.43 2.23 2.21 2.25 2.14 2.11 1.86 1.88 2.00 1.88 1.90 2.13 2.34 2.39 2.32
4.92 4.53 3.93 3.65 3.32 3.02 2.72 2.22 1.83 1.61 1.38 1.33 1.29 1.28 1.32 1.47 1.70 1.70 1.77 1.77 1.84 1.79 1.86 2.02 2.27 2.54 2.54 2.44 2.36 2.30 2.23 2.12 1.95 1.93 1.97 1.90 1.66 1.71 1.80 1.94 2.13 2.27 2.43
5.72 5.13 4.40 3.70 3.70 3.52 3.19 2.52 2.02 1.70 1.54 1.45 1.36 1.24 1.14 1.17 1.19 1.29 1.32 1.31 1.32 1.22 1.34 1.63 1.72 1.92 2.18 2.32 2.43 2.27 2.19 2.22 2.01 1.95 1.91 1.91 1.87 1.60 1.82 1.89 1.88 1.94 2.23
5.88 5.68 5.05 4.84 4.60 3.92 3.16 2.54 2.10 1.81 1.64 1.46 1.38 1.27 1.18 1.05 1.02 1.11 1.18 1.27 1.04 1.02 1.09 1.04 1.38 1.58 1.83 1.96 1.73 1.86 1.78 1.83 1.75 1.54 1.55 1.43 1.62 1.59 1.70 1.71 1.75 1.72 1.94
4.82 4.73 4.66 4.77 4.29 3.66 3.02 2.50 2.18 1.91 1.60 1.41 1.33 1.32 1.23 1.15 1.10 1.18 1.06 1.08 0.96 1.08 1.21 1.30 1.54 1.49 1.46 1.55 1.35 1.57 1.49 1.37 1.39 1.31 1.19 1.22 1.26 1.15 1.34 1.50 1.58 1.39 1.63
3.25 3.36 3.67 3.88 3.59 3.09 2.66 2.15 1.91 1.82 1.63 1.45 1.32 1.22 1.22 1.15 1.26 1.33 1.08 1.31 1.17 1.14 1.19 1.22 1.34 1.34 1.23 1.21 1.57 1.76 1.42 1.10 1.08 0.96 0.93 1.05 1.12 1.15 1.34 1.55 1.56 1.53 1.38
2.33 2.65 3.03 3.27 3.11 2.57 2.32 2.09 1.93 1.82 1.69 1.64 1.50 1.40 1.24 1.20 1.24 1.13 1.31 1.16 1.18 1.27 1.29 1.34 1.43 1.41 1.25 1.22 1.54 1.87 1.65 1.60 1.43 0.79 0.87 0.97 1.05 1.24 1.30 1.30 1.42 1.60 1.39
2.05 2.20 2.26 2.52 2.71 2.45 2.31 2.22 2.10 1.98 1.77 1.80 1.70 1.53 1.22 1.12 1.16 1.18 1.18 1.17 1.32 1.13 1.35 1.51 1.46 1.51 1.47 1.32 1.33 1.60 1.66 1.62 1.43 1.12 0.89 0.85 0.96 1.21 1.24 1.29 1.25 1.41 1.51
1.43 1.71 1.96 2.21 2.38 2.32 2.19 1.98 1.82 1.63 1.52 1.49 1.51 1.52 1.39 1.28 1.12 1.12 1.12 1.23 1.36 1.18 1.44 1.17 1.24 1.46 1.54 1.38 1.30 1.18 1.21 1.37 1.49 1.44 1.20 0.95 0.94 1.05 1.10 1.04 1.07 1.27 1.35
0.98 1.37 1.79 2.12 2.36 2.26 1.98 1.80 1.78 1.67 1.62 1.53 1.45 1.60 1.48 1.41 1.22 1.07 1.13 1.22 1.26 1.18 1.24 1.25 1.49 1.39 1.35 1.33 1.33 1.29 1.29 1.22 1.09 1.21 1.31 1.27 1.17 0.92 0.83 0.88 0.98 1.12 1.18
0.79 1.02 1.30 1.63 1.91 1.95 1.79 1.71 1.74 1.75 1.71 1.59 1.39 1.35 1.25 1.25 1.22 1.17 1.24 1.26 1.20 1.12 1.15 1.19 1.31 1.33 1.39 1.45 1.32 1.20 1.27 1.22 1.12 1.18 1.07 1.07 1.13 0.86 0.74 0.75 0.83 0.95 1.04

GEFSSE_prec_meanprecacc_198.txt.gz
Total_Precipitation_Accumulation
0.65 0.77 1.01 0.99 0.83 0.82 0.87 0.89 0.82 0.77 0.70 0.72 0.71 0.69 0.63 0.55 0.50 0.49 0.48 0.47 0.48 0.55 0.63 0.73 0.76 0.75 0.83 0.92 1.02 1.09 1.12 1.20 1.35 1.57 1.72 1.73 1.75 1.79 1.95 2.03 1.99 1.54 1.46
0.37 0.52 0.79 0.86 0.74 0.78 0.78 0.79 0.77 0.71 0.67 0.65 0.70 0.76 0.71 0.64 0.55 0.52 0.50 0.50 0.55 0.60 0.62 0.64 0.71 0.69 0.74 0.83 0.95 1.01 1.07 1.23 1.65 1.97 2.12 2.03 2.02 2.01 2.07 2.02 1.98 1.57 1.41
0.26 0.31 0.45 0.68 0.69 0.73 0.66 0.67 0.70 0.65 0.62 0.60 0.63 0.69 0.66 0.63 0.54 0.50 0.52 0.55 0.62 0.62 0.58 0.66 0.71 0.68 0.73 0.83 0.92 0.94 1.10 1.40 2.00 2.60 2.72 2.24 1.86 2.04 2.09 2.01 1.79 1.42 1.24
0.22 0.22 0.25 0.48 0.58 0.62 0.58 0.60 0.65 0.62 0.54 0.54 0.55 0.58 0.56 0.58 0.54 0.50 0.52 0.55 0.59 0.57 0.60 0.70 0.70 0.73 0.72 0.76 0.86 1.05 1.29 1.52 2.06 2.52 2.57 1.87 1.47 1.54 1.75 1.58 1.40 1.23 1.03
0.24 0.20 0.26 0.38 0.42 0.49 0.49 0.51 0.56 0.59 0.55 0.50 0.47 0.53 0.54 0.53 0.53 0.52 0.55 0.57 0.59 0.60 0.60 0.63 0.73 0.80 0.78 0.74 0.85 1.12 1.45 1.76 2.07 2.23 1.86 2.05 1.93 1.57 1.45 1.30 1.26 1.04 0.83
0.24 0.19 0.25 0.35 0.34 0.37 0.40 0.43 0.48 0.51 0.52 0.50 0.50 0.54 0.60 0.63 0.65 0.57 0.52 0.57 0.63 0.67 0.69 0.70 0.78 0.82 0.76 0.73 0.84 1.13 1.46 1.87 1.96 1.44 1.14 1.49 1.48 1.40 1.31 1.25 1.14 0.96 0.79
0.27 0.21 0.25 0.39 0.36 0.34 0.39 0.43 0.46 0.47 0.49 0.48 0.51 0.53 0.61 0.67 0.66 0.61 0.60 0.61 0.63 0.68 0.70 0.74 0.76 0.79 0.79 0.82 0.86 1.08 1.49 1.86 1.70 1.13 0.94 1.19 1.12 1.17 1.25 1.26 1.18 1.00 0.81
0.35 0.25 0.28 0.43 0.47 0.42 0.43 0.46 0.49 0.47 0.49 0.50 0.50 0.53 0.58 0.63 0.64 0.66 0.68 0.71 0.65 0.68 0.71 0.72 0.72 0.70 0.72 0.85 0.96 1.06 1.40 1.52 1.23 1.02 0.91 0.97 0.81 1.08 1.22 1.14 1.08 0.96 0.85
0.63 0.50 0.42 0.44 0.47 0.47 0.54 0.57 0.53 0.53 0.53 0.51 0.54 0.57 0.57 0.60 0.62 0.62 0.74 0.78 0.73 0.73 0.74 0.76 0.75 0.73 0.76 0.89 1.00 1.14 1.39 1.59 1.37 1.24 0.99 0.93 0.77 1.08 1.31 1.13 0.98 0.87 0.87
1.23 1.02 0.77 0.58 0.60 0.57 0.61 0.62 0.59 0.50 0.50 0.54 0.58 0.58 0.62 0.71 0.75 0.83 0.84 0.81 0.84 0.92 0.94 0.95 0.91 0.84 0.95 1.05 1.15 1.27 1.44 1.43 1.33 1.52 1.26 0.88 0.88 1.19 1.40 1.43 1.23 1.03 0.96
1.61 1.42 1.27 1.03 0.79 0.82 0.77 0.64 0.73 0.67 0.65 0.75 0.92 0.90 1.00 1.30 1.26 1.37 1.14 1.04 1.13 1.31 1.38 1.38 1.34 1.27 1.24 1.21 1.37 1.54 1.46 1.39 1.61 1.78 1.45 1.05 1.15 1.53 1.67 1.72 1.56 1.43 1.32
1.65 1.46 1.44 1.38 1.09 1.00 0.94 1.12 1.39 1.24 1.25 1.32 1.56 1.43 1.68 1.83 1.73 1.28 1.34 1.48 1.59 1.92 2.06 2.07 2.08 1.89 1.68 1.56 1.70 1.73 1.52 1.56 1.72 1.56 1.32 1.19 1.33 1.69 1.96 2.00 1.82 1.61 1.55
1.85 1.71 1.44 1.55 1.41 1.35 1.47 1.53 1.68 1.78 1.78 1.76 1.84 1.86 2.07 1.91 1.65 1.57 1.86 2.17 2.31 2.45 2.63 2.68 2.61 2.22 2.20 2.38 2.37 2.14 2.03 1.89 1.92 1.65 1.33 1.38 1.51 1.82 2.11 2.18 1.99 1.84 1.70
2.13 2.02 1.89 1.87 1.87 1.83 1.84 1.75 1.64 1.49 1.53 1.65 1.81 1.83 2.03 2.11 2.14 2.13 2.27 2.38 2.55 2.86 3.21 3.14 3.14 2.93 2.97 2.82 2.61 2.57 2.39 2.09 2.23 2.27 1.80 1.65 1.74 2.09 2.27 2.28 2.13 2.00 1.97
2.83 2.68 2.67 2.73 2.52 2.27 2.17 1.84 1.50 1.40 1.30 1.39 1.50 1.61 1.65 1.94 2.18 2.24 2.11 2.12 2.11 2.32 2.73 3.23 3.21 3.38 3.40 3.09 2.66 2.47 2.50 2.36 2.32 2.27 1.91 1.96 2.14 2.20 2.20 2.19 2.15 2.09 2.10
3.82 3.63 3.43 3.48 3.02 2.64 2.37 1.99 1.72 1.47 1.44 1.37 1.31 1.34 1.53 1.76 2.01 1.99 1.95 2.12 2.17 2.12 2.28 2.70 2.89 3.23 3.24 2.92 2.45 2.24 2.22 2.27 2.16 2.15 1.89 1.91 2.04 1.92 1.93 2.17 2.38 2.43 2.35
4.92 4.53 3.93 3.66 3.32 3.02 2.73 2.23 1.85 1.67 1.41 1.39 1.38 1.31 1.35 1.49 1.72 1.71 1.79 1.79 1.86 1.82 1.88 2.06 2.31 2.58 2.57 2.46 2.38 2.31 2.24 2.14 1.97 1.96 2.01 1.94 1.69 1.75 1.84 1.97 2.17 2.31 2.46
5.72 5.13 4.40 3.70 3.70 3.53 3.20 2.53 2.04 1.73 1.57 1.48 1.40 1.27 1.20 1.23 1.21 1.31 1.35 1.34 1.35 1.25 1.37 1.66 1.75 1.96 2.21 2.33 2.44 2.28 2.20 2.24 2.03 1.98 1.95 1.94 1.90 1.64 1.88 1.92 1.92 1.98 2.26
5.88 5.68 5.05 4.84 4.60 3.93 3.17 2.55 2.12 1.83 1.66 1.48 1.39 1.30 1.23 1.13 1.08 1.14 1.21 1.30 1.08 1.05 1.12 1.07 1.41 1.60 1.85 1.98 1.75 1.88 1.80 1.86 1.78 1.58 1.59 1.47 1.65 1.64 1.74 1.73 1.78 1.76 1.98
4.82 4.73 4.67 4.77 4.29 3.67 3.03 2.52 2.20 1.93 1.63 1.43 1.34 1.34 1.26 1.19 1.14 1.23 1.09 1.10 0.98 1.12 1.25 1.35 1.58 1.52 1.49 1.59 1.39 1.61 1.51 1.40 1.44 1.37 1.25 1.26 1.32 1.22 1.42 1.58 1.66 1.43 1.66
3.25 3.36 3.67 3.88 3.59 3.10 2.67 2.15 1.93 1.83 1.65 1.47 1.33 1.24 1.25 1.18 1.30 1.37 1.12 1.36 1.21 1.18 1.24 1.26 1.38 1.38 1.27 1.25 1.60 1.78 1.44 1.13 1.12 1.01 0.99 1.13 1.20 1.23 1.44 1.67 1.69 1.63 1.44
2.33 2.65 3.03 3.27 3.11 2.57 2.32 2.09 1.94 1.84 1.71 1.66 1.51 1.43 1.26 1.22 1.26 1.16 1.34 1.21 1.23 1.32 1.35 1.40 1.48 1.47 1.31 1.26 1.57 1.90 1.66 1.62 1.47 0.83 0.93 1.06 1.16 1.36 1.43 1.42 1.55 1.72 1.47
2.05 2.20 2.26 2.52 2.71 2.45 2.31 2.22 2.10 1.99 1.79 1.83 1.72 1.55 1.24 1.14 1.17 1.20 1.20 1.20 1.37 1.18 1.40 1.55 1.51 1.56 1.52 1.37 1.39 1.65 1.69 1.66 1.46 1.14 0.93 0.92 1.09 1.39 1.43 1.49 1.40 1.51 1.61
1.43 1.71 1.96 2.21 2.39 2.32 2.19 1.98 1.82 1.64 1.53 1.51 1.53 1.54 1.42 1.30 1.14 1.13 1.14 1.26 1.40 1.21 1.47 1.20 1.26 1.49 1.58 1.43 1.36 1.24 1.27 1.43 1.54 1.48 1.24 1.02 1.04 1.18 1.27 1.19 1.21 1.39 1.47
0.98 1.37 1.79 2.13 2.36 2.26 1.98 1.80 1.79 1.68 1.63 1.56 1.47 1.62 1.51 1.45 1.25 1.09 1.15 1.25 1.30 1.22 1.28 1.28 1.52 1.43 1.40 1.38 1.39 1.39 1.41 1.31 1.14 1.25 1.35 1.32 1.23 0.99 0.92 0.97 1.10 1.26 1.29
0.79 1.02 1.30 1.63 1.91 1.95 1.80 1.71 1.74 1.76 1.73 1.60 1.40 1.37 1.27 1.28 1.25 1.20 1.26 1.28 1.22 1.16 1.20 1.22 1.34 1.36 1.42 1.48 1.36 1.25 1.32 1.27 1.18 1.24 1.11 1.10 1.18 0.91 0.80 0.83 0.94 1.11 1.18

GEFSSE_prec_meanprecacc_204.txt.gz
Total_Precipitation_Accumulation
0.68 0.87 1.18 1.12 0.95 0.93 0.98 1.00 0.91 0.83 0.78 0.79 0.79 0.75 0.67 0.59 0.53 0.53 0.51 0.49 0.50 0.57 0.65 0.75 0.78 0.76 0.84 0.93 1.04 1.11 1.13 1.22 1.37 1.59 1.75 1.75 1.77 1.82 1.97 2.04 1.99 1.55 1.48
0.40 0.61 0.94 0.99 0.86 0.88 0.86 0.87 0.84 0.77 0.73 0.71 0.77 0.81 0.75 0.68 0.59 0.54 0.52 0.52 0.57 0.62 0.63 0.65 0.73 0.71 0.75 0.85 0.97 1.03 1.09 1.26 1.68 2.00 2.16 2.06 2.05 2.05 2.10 2.04 1.99 1.59 1.43
0.29 0.38 0.57 0.82 0.83 0.82 0.74 0.75 0.76 0.71 0.67 0.66 0.70 0.74 0.70 0.66 0.57 0.51 0.53 0.57 0.63 0.64 0.59 0.68 0.72 0.69 0.75 0.86 0.95 0.96 1.13 1.42 2.03 2.64 2.76 2.26 1.88 2.08 2.13 2.06 1.82 1.44 1.27
0.24 0.28 0.34 0.62 0.70 0.72 0.69 0.69 0.73 0.67 0.58 0.58 0.60 0.61 0.58 0.60 0.56 0.52 0.54 0.57 0.61 0.59 0.62 0.71 0.72 0.74 0.74 0.78 0.89 1.08 1.32 1.53 2.09 2.56 2.59 1.87 1.48 1.59 1.82 1.63 1.43 1.24 1.05
0.27 0.25 0.38 0.51 0.52 0.58 0.59 0.60 0.64 0.65 0.60 0.54 0.51 0.56 0.55 0.55 0.55 0.54 0.57 0.59 0.62 0.62 0.62 0.65 0.75 0.81 0.80 0.77 0.89 1.16 1.49 1.80 2.12 2.26 1.87 2.05 1.93 1.60 1.50 1.35 1.30 1.06 0.85
0.26 0.21 0.31 0.43 0.42 0.49 0.51 0.52 0.56 0.58 0.57 0.55 0.53 0.57 0.62 0.65 0.67 0.60 0.55 0.59 0.65 0.69 0.70 0.72 0.80 0.85 0.78 0.76 0.89 1.20 1.52 1.93 2.00 1.46 1.15 1.49 1.49 1.42 1.35 1.30 1.17 0.99 0.81
0.28 0.21 0.27 0.43 0.42 0.43 0.46 0.49 0.51 0.53 0.55 0.52 0.54 0.56 0.64 0.70 0.69 0.63 0.62 0.64 0.66 0.70 0.72 0.77 0.80 0.83 0.83 0.86 0.92 1.16 1.56 1.90 1.72 1.14 0.95 1.20 1.13 1.19 1.29 1.29 1.20 1.03 0.84
0.36 0.25 0.30 0.47 0.52 0.48 0.49 0.50 0.52 0.52 0.52 0.53 0.53 0.56 0.61 0.66 0.67 0.68 0.71 0.74 0.68 0.71 0.75 0.76 0.77 0.74 0.79 0.92 1.02 1.12 1.46 1.56 1.24 1.02 0.92 0.99 0.82 1.09 1.25 1.17 1.10 0.98 0.87
0.64 0.52 0.43 0.46 0.49 0.51 0.59 0.62 0.56 0.55 0.55 0.55 0.58 0.60 0.59 0.62 0.64 0.65 0.77 0.80 0.75 0.76 0.79 0.81 0.78 0.78 0.83 0.96 1.05 1.18 1.44 1.64 1.39 1.25 1.00 0.94 0.78 1.10 1.34 1.15 0.99 0.89 0.88
1.26 1.04 0.78 0.58 0.61 0.58 0.63 0.65 0.62 0.52 0.52 0.57 0.63 0.63 0.66 0.74 0.79 0.88 0.88 0.85 0.88 0.95 0.97 1.01 0.95 0.89 1.00 1.10 1.20 1.32 1.49 1.49 1.36 1.53 1.28 0.89 0.90 1.22 1.43 1.45 1.25 1.05 0.97
1.62 1.43 1.28 1.04 0.79 0.82 0.78 0.67 0.76 0.69 0.67 0.80 0.98 0.96 1.04 1.34 1.31 1.41 1.18 1.08 1.17 1.36 1.41 1.43 1.40 1.32 1.29 1.25 1.41 1.60 1.50 1.41 1.64 1.81 1.47 1.07 1.19 1.59 1.72 1.77 1.59 1.44 1.34
1.65 1.46 1.45 1.38 1.09 1.00 0.95 1.13 1.41 1.26 1.27 1.35 1.58 1.47 1.74 1.86 1.75 1.30 1.38 1.53 1.65 2.00 2.11 2.13 2.15 1.95 1.70 1.58 1.73 1.77 1.54 1.57 1.74 1.59 1.35 1.21 1.37 1.76 2.03 2.06 1.87 1.65 1.58
1.86 1.72 1.44 1.55 1.41 1.37 1.49 1.55 1.70 1.79 1.78 1.76 1.85 1.88 2.11 1.94 1.66 1.58 1.88 2.22 2.38 2.54 2.70 2.74 2.66 2.24 2.21 2.39 2.38 2.16 2.05 1.91 1.93 1.67 1.35 1.41 1.56 1.88 2.18 2.25 2.04 1.89 1.74
2.14 2.03 1.90 1.87 1.87 1.84 1.86 1.78 1.66 1.51 1.54 1.66 1.82 1.85 2.05 2.13 2.15 2.15 2.28 2.40 2.59 2.92 3.27 3.19 3.16 2.95 2.99 2.83 2.62 2.58 2.40 2.10 2.24 2.30 1.84 1.70 1.80 2.15 2.35 2.35 2.18 2.04 2.02
2.83 2.68 2.67 2.73 2.52 2.28 2.19 1.86 1.52 1.42 1.32 1.40 1.52 1.63 1.68 1.97 2.21 2.26 2.13 2.16 2.16 2.37 2.76 3.25 3.23 3.41 3.43 3.11 2.67 2.48 2.51 2.37 2.34 2.28 1.93 2.01 2.22 2.28 2.30 2.28 2.22 2.16 2.17
3.82 3.63 3.43 3.48 3.02 2.65 2.38 1.99 1.72 1.48 1.47 1.40 1.33 1.36 1.56 1.78 2.03 2.00 1.97 2.15 2.20 2.14 2.29 2.72 2.92 3.25 3.27 2.94 2.47 2.27 2.25 2.29 2.18 2.16 1.91 1.94 2.11 1.99 2.02 2.27 2.47 2.52 2.43
4.92 4.53 3.94 3.66 3.32 3.02 2.73 2.23 1.85 1.67 1.42 1.40 1.39 1.34 1.40 1.52 1.74 1.73 1.81 1.80 1.88 1.84 1.91 2.09 2.35 2.63 2.61 2.49 2.40 2.33 2.26 2.16 1.99 1.98 2.03 1.96 1.72 1.81 1.92 2.06 2.27 2.40 2.56
5.72 5.13 4.40 3.70 3.71 3.53 3.20 2.54 2.05 1.75 1.58 1.49 1.42 1.30 1.23 1.26 1.25 1.33 1.37 1.35 1.37 1.27 1.40 1.70 1.81 2.02 2.25 2.36 2.47 2.29 2.22 2.26 2.04 1.99 1.96 1.96 1.92 1.67 1.93 1.99 2.00 2.06 2.35
5.89 5.68 5.05 4.85 4.60 3.93 3.18 2.56 2.13 1.84 1.67 1.49 1.41 1.32 1.26 1.17 1.13 1.17 1.24 1.32 1.10 1.07 1.15 1.10 1.45 1.65 1.89 2.02 1.79 1.91 1.83 1.89 1.80 1.59 1.60 1.49 1.67 1.66 1.77 1.77 1.85 1.84 2.07
4.83 4.73 4.67 4.77 4.30 3.67 3.03 2.52 2.21 1.94 1.64 1.44 1.35 1.35 1.28 1.22 1.19 1.27 1.12 1.13 1.01 1.14 1.29 1.38 1.62 1.57 1.53 1.65 1.43 1.63 1.54 1.42 1.45 1.38 1.26 1.28 1.34 1.24 1.45 1.61 1.70 1.48 1.73
3.25 3.36 3.67 3.88 3.59 3.10 2.67 2.16 1.93 1.84 1.66 1.48 1.34 1.25 1.27 1.22 1.33 1.40 1.15 1.38 1.23 1.20 1.27 1.31 1.43 1.43 1.31 1.29 1.63 1.80 1.46 1.14 1.14 1.02 1.01 1.16 1.22 1.25 1.47 1.72 1.76 1.70 1.50
2.34 2.65 3.03 3.27 3.11 2.57 2.32 2.10 1.95 1.85 1.72 1.67 1.52 1.44 1.28 1.24 1.29 1.19 1.38 1.23 1.26 1.34 1.38 1.45 1.53 1.52 1.37 1.31 1.60 1.91 1.67 1.63 1.48 0.85 0.95 1.09 1.19 1.39 1.46 1.47 1.61 1.80 1.54
2.05 2.20 2.26 2.52 2.72 2.45 2.31 2.22 2.11 2.00 1.81 1.84 1.73 1.56 1.27 1.17 1.20 1.22 1.22 1.23 1.40 1.22 1.43 1.59 1.55 1.60 1.57 1.43 1.44 1.69 1.73 1.68 1.47 1.15 0.94 0.94 1.10 1.41 1.46 1.53 1.44 1.58 1.69
1.43 1.72 1.97 2.22 2.39 2.33 2.20 1.99 1.83 1.64 1.53 1.52 1.54 1.55 1.43 1.32 1.16 1.15 1.15 1.29 1.42 1.24 1.51 1.25 1.30 1.51 1.61 1.47 1.41 1.30 1.32 1.46 1.55 1.49 1.26 1.04 1.05 1.20 1.30 1.23 1.26 1.45 1.56
0.99 1.38 1.80 2.14 2.38 2.28 1.99 1.81 1.79 1.69 1.64 1.57 1.50 1.65 1.53 1.47 1.27 1.11 1.17 1.28 1.33 1.25 1.32 1.33 1.57 1.48 1.44 1.42 1.43 1.45 1.49 1.40 1.20 1.28 1.37 1.35 1.26 1.02 0.94 0.99 1.13 1.30 1.35
0.80 1.04 1.32 1.65 1.94 1.98 1.83 1.73 1.75 1.77 1.75 1.62 1.42 1.39 1.31 1.32 1.28 1.22 1.28 1.31 1.26 1.19 1.23 1.26 1.38 1.41 1.47 1.53 1.40 1.29 1.38 1.32 1.21 1.26 1.12 1.11 1.21 0.94 0.82 0.85 0.96 1.15 1.23

GEFSSE_prec_meanprecacc_210.txt.gz
Total_Precipitation_Accumulation
0.74 0.99 1.36 1.31 1.12 1.11 1.17 1.16 1.02 0.93 0.87 0.89 0.87 0.80 0.73 0.65 0.59 0.56 0.55 0.54 0.54 0.61 0.69 0.78 0.81 0.78 0.85 0.95 1.06 1.13 1.16 1.25 1.39 1.63 1.78 1.78 1.82 1.86 2.00 2.07 2.02 1.57 1.51
0.46 0.74 1.11 1.15 1.00 0.99 1.01 1.02 0.97 0.87 0.83 0.82 0.87 0.88 0.81 0.74 0.64 0.57 0.55 0.56 0.61 0.66 0.67 0.68 0.76 0.73 0.77 0.87 0.99 1.05 1.11 1.28 1.70 2.04 2.20 2.08 2.06 2.07 2.13 2.05 2.01 1.60 1.45
0.36 0.51 0.75 1.01 0.97 0.94 0.87 0.87 0.86 0.81 0.78 0.77 0.79 0.84 0.80 0.73 0.63 0.57 0.57 0.60 0.66 0.66 0.62 0.71 0.77 0.73 0.77 0.87 0.96 0.98 1.15 1.45 2.06 2.66 2.79 2.30 1.90 2.10 2.15 2.08 1.84 1.46 1.29
0.30 0.41 0.56 0.84 0.86 0.87 0.84 0.84 0.83 0.77 0.68 0.68 0.69 0.69 0.66 0.67 0.61 0.56 0.57 0.60 0.63 0.61 0.63 0.74 0.78 0.78 0.76 0.80 0.90 1.11 1.35 1.58 2.12 2.59 2.61 1.89 1.50 1.60 1.84 1.65 1.46 1.26 1.07
0.32 0.37 0.56 0.72 0.72 0.76 0.74 0.73 0.77 0.75 0.69 0.64 0.61 0.65 0.64 0.61 0.59 0.57 0.60 0.61 0.65 0.65 0.64 0.68 0.79 0.84 0.82 0.80 0.92 1.20 1.53 1.85 2.16 2.29 1.89 2.07 1.95 1.62 1.52 1.37 1.32 1.09 0.87
0.30 0.28 0.44 0.60 0.61 0.71 0.68 0.64 0.67 0.67 0.67 0.64 0.62 0.65 0.70 0.72 0.72 0.64 0.58 0.62 0.68 0.72 0.72 0.74 0.84 0.89 0.82 0.81 0.94 1.26 1.58 1.98 2.03 1.47 1.15 1.50 1.50 1.43 1.38 1.33 1.20 1.02 0.84
0.31 0.26 0.35 0.54 0.53 0.60 0.62 0.60 0.61 0.62 0.65 0.61 0.62 0.62 0.69 0.75 0.73 0.68 0.66 0.68 0.69 0.73 0.74 0.79 0.84 0.87 0.89 0.91 0.98 1.24 1.65 1.96 1.74 1.15 0.96 1.21 1.16 1.21 1.31 1.31 1.23 1.07 0.88
0.39 0.29 0.35 0.55 0.63 0.62 0.61 0.60 0.60 0.60 0.60 0.59 0.59 0.60 0.64 0.70 0.72 0.73 0.75 0.77 0.71 0.75 0.79 0.79 0.81 0.80 0.86 0.97 1.09 1.21 1.59 1.62 1.26 1.04 0.94 1.02 0.84 1.12 1.27 1.19 1.13 1.02 0.90
0.69 0.56 0.48 0.53 0.61 0.63 0.69 0.70 0.64 0.63 0.62 0.60 0.62 0.64 0.63 0.65 0.68 0.69 0.81 0.84 0.79 0.80 0.83 0.86 0.84 0.85 0.90 1.02 1.12 1.26 1.56 1.69 1.42 1.27 1.01 0.96 0.79 1.12 1.36 1.16 1.01 0.90 0.91
1.29 1.09 0.82 0.63 0.69 0.66 0.72 0.74 0.71 0.59 0.58 0.62 0.67 0.67 0.70 0.77 0.83 0.92 0.91 0.88 0.91 0.99 1.03 1.06 1.02 0.97 1.08 1.18 1.26 1.40 1.57 1.53 1.38 1.56 1.30 0.90 0.91 1.24 1.46 1.48 1.27 1.06 0.99
1.64 1.46 1.31 1.06 0.81 0.87 0.85 0.76 0.86 0.77 0.76 0.87 1.03 1.02 1.09 1.40 1.36 1.46 1.20 1.12 1.22 1.41 1.46 1.50 1.49 1.41 1.36 1.32 1.48 1.66 1.54 1.45 1.67 1.84 1.50 1.08 1.20 1.62 1.77 1.82 1.63 1.46 1.35
1.66 1.48 1.47 1.40 1.11 1.02 0.98 1.21 1.52 1.34 1.34 1.40 1.63 1.52 1.81 1.93 1.81 1.35 1.42 1.58 1.71 2.06 2.18 2.20 2.24 2.03 1.75 1.62 1.77 1.80 1.56 1.59 1.77 1.62 1.37 1.22 1.38 1.79 2.08 2.11 1.91 1.68 1.60
1.86 1.73 1.45 1.57 1.43 1.39 1.54 1.62 1.77 1.85 1.84 1.80 1.89 1.93 2.17 1.99 1.71 1.62 1.93 2.28 2.46 2.63 2.79 2.83 2.75 2.30 2.26 2.42 2.41 2.19 2.07 1.92 1.96 1.69 1.37 1.43 1.58 1.91 2.22 2.29 2.10 1.93 1.76
2.15 2.03 1.90 1.88 1.88 1.86 1.90 1.82 1.71 1.55 1.57 1.69 1.85 1.88 2.09 2.19 2.21 2.19 2.34 2.46 2.67 3.01 3.37 3.30 3.25 3.02 3.04 2.87 2.64 2.61 2.43 2.12 2.26 2.33 1.87 1.72 1.82 2.18 2.39 2.38 2.22 2.09 2.07
2.84 2.68 2.67 2.73 2.52 2.29 2.22 1.89 1.55 1.45 1.36 1.43 1.55 1.65 1.71 2.03 2.29 2.34 2.20 2.22 2.22 2.44 2.85 3.36 3.31 3.48 3.47 3.15 2.70 2.51 2.55 2.42 2.37 2.32 1.96 2.04 2.26 2.31 2.35 2.32 2.27 2.22 2.24
3.82 3.64 3.44 3.48 3.02 2.65 2.40 2.02 1.76 1.51 1.51 1.43 1.35 1.38 1.59 1.82 2.10 2.07 2.04 2.22 2.28 2.22 2.38 2.80 2.99 3.33 3.33 2.99 2.50 2.29 2.29 2.34 2.21 2.20 1.95 1.99 2.14 2.03 2.06 2.32 2.53 2.58 2.51
4.92 4.53 3.94 3.66 3.32 3.02 2.74 2.25 1.87 1.69 1.44 1.43 1.43 1.36 1.43 1.56 1.79 1.79 1.87 1.87 1.95 1.90 1.98 2.16 2.42 2.71 2.69 2.55 2.44 2.37 2.29 2.19 2.02 2.01 2.06 2.00 1.76 1.84 1.95 2.09 2.32 2.46 2.62
5.72 5.13 4.40 3.70 3.71 3.53 3.21 2.55 2.06 1.77 1.62 1.53 1.46 1.34 1.26 1.29 1.29 1.40 1.44 1.42 1.44 1.33 1.47 1.77 1.87 2.11 2.35 2.44 2.53 2.33 2.23 2.28 2.06 2.01 1.98 1.99 1.97 1.69 1.96 2.03 2.07 2.13 2.43
5.89 5.69 5.05 4.85 4.60 3.93 3.18 2.57 2.15 1.85 1.71 1.53 1.44 1.35 1.29 1.21 1.16 1.23 1.31 1.40 1.17 1.14 1.21 1.15 1.51 1.72 1.97 2.10 1.85 1.96 1.86 1.92 1.83 1.61 1.62 1.51 1.69 1.68 1.81 1.80 1.90 1.89 2.13
4.83 4.73 4.67 4.77 4.30 3.68 3.04 2.53 2.22 1.95 1.66 1.47 1.37 1.39 1.31 1.25 1.22 1.33 1.18 1.20 1.07 1.21 1.36 1.46 1.70 1.64 1.60 1.70 1.47 1.67 1.57 1.44 1.47 1.41 1.29 1.30 1.36 1.27 1.49 1.67 1.77 1.55 1.78
3.25 3.36 3.67 3.89 3.60 3.10 2.67 2.17 1.95 1.86 1.68 1.49 1.36 1.26 1.31 1.25 1.37 1.46 1.21 1.45 1.30 1.26 1.34 1.38 1.50 1.50 1.36 1.33 1.67 1.85 1.49 1.15 1.15 1.04 1.02 1.18 1.25 1.29 1.54 1.79 1.83 1.77 1.56
2.34 2.65 3.03 3.27 3.11 2.58 2.33 2.11 1.96 1.87 1.74 1.68 1.54 1.46 1.31 1.28 1.33 1.24 1.45 1.29 1.32 1.41 1.45 1.51 1.60 1.59 1.42 1.35 1.65 1.97 1.72 1.67 1.50 0.86 0.96 1.10 1.20 1.42 1.49 1.50 1.65 1.86 1.60
2.05 2.21 2.26 2.52 2.72 2.46 2.32 2.23 2.12 2.01 1.82 1.85 1.75 1.59 1.29 1.19 1.23 1.26 1.27 1.28 1.46 1.28 1.50 1.68 1.62 1.67 1.64 1.49 1.50 1.77 1.81 1.77 1.54 1.19 0.96 0.96 1.14 1.45 1.49 1.55 1.46 1.61 1.73
1.43 1.72 1.98 2.22 2.40 2.34 2.21 2.00 1.84 1.65 1.54 1.54 1.56 1.57 1.45 1.33 1.17 1.17 1.18 1.33 1.48 1.29 1.59 1.33 1.36 1.59 1.70 1.54 1.48 1.35 1.37 1.51 1.63 1.56 1.30 1.07 1.08 1.24 1.33 1.25 1.28 1.48 1.60
0.99 1.38 1.81 2.16 2.40 2.29 2.00 1.83 1.82 1.71 1.66 1.59 1.52 1.69 1.56 1.48 1.28 1.12 1.19 1.31 1.37 1.29 1.37 1.40 1.64 1.56 1.51 1.49 1.52 1.53 1.57 1.47 1.26 1.34 1.43 1.40 1.30 1.04 0.97 1.02 1.14 1.32 1.37
0.81 1.06 1.38 1.72 1.97 1.99 1.84 1.75 1.80 1.82 1.78 1.64 1.45 1.44 1.35 1.36 1.31 1.23 1.30 1.35 1.30 1.24 1.29 1.32 1.45 1.48 1.55 1.61 1.48 1.37 1.47 1.39 1.28 1.32 1.18 1.17 1.26 0.97 0.85 0.87 0.98 1.17 1.26

GEFSSE_prec_meanprecacc_216.txt.gz
Total_Precipitation_Accumulation
0.84 1.07 1.48 1.44 1.26 1.26 1.30 1.28 1.13 1.02 0.95 0.95 0.93 0.87 0.79 0.70 0.63 0.60 0.58 0.57 0.57 0.64 0.73 0.80 0.82 0.80 0.87 0.96 1.08 1.15 1.17 1.27 1.41 1.65 1.80 1.81 1.84 1.89 2.04 2.11 2.06 1.60 1.54
0.55 0.83 1.23 1.28 1.10 1.10 1.11 1.13 1.06 0.95 0.90 0.90 0.95 0.95 0.88 0.81 0.70 0.62 0.59 0.60 0.65 0.68 0.69 0.70 0.77 0.74 0.78 0.89 1.01 1.07 1.14 1.32 1.74 2.06 2.23 2.10 2.09 2.11 2.16 2.10 2.07 1.64 1.48
0.47 0.65 0.88 1.12 1.06 1.03 0.96 0.97 0.94 0.89 0.85 0.84 0.88 0.91 0.87 0.80 0.68 0.61 0.61 0.65 0.70 0.69 0.64 0.73 0.78 0.74 0.80 0.90 0.98 1.00 1.18 1.48 2.08 2.69 2.83 2.34 1.92 2.12 2.18 2.11 1.87 1.47 1.30
0.40 0.62 0.71 0.93 0.94 0.96 0.93 0.93 0.91 0.85 0.75 0.75 0.74 0.74 0.73 0.73 0.66 0.60 0.61 0.64 0.66 0.64 0.65 0.75 0.79 0.80 0.79 0.83 0.93 1.13 1.37 1.60 2.14 2.63 2.68 1.94 1.52 1.62 1.85 1.66 1.47 1.28 1.09
0.39 0.51 0.71 0.86 0.82 0.88 0.85 0.82 0.85 0.83 0.76 0.70 0.66 0.71 0.70 0.66 0.63 0.60 0.62 0.64 0.67 0.67 0.67 0.70 0.81 0.86 0.84 0.84 0.96 1.22 1.55 1.86 2.18 2.34 1.93 2.11 1.98 1.64 1.53 1.39 1.34 1.10 0.89
0.32 0.35 0.57 0.79 0.77 0.86 0.79 0.73 0.75 0.75 0.75 0.71 0.69 0.72 0.76 0.77 0.75 0.66 0.61 0.64 0.71 0.75 0.74 0.77 0.86 0.91 0.85 0.84 0.97 1.28 1.59 1.99 2.06 1.51 1.18 1.54 1.54 1.45 1.39 1.35 1.23 1.04 0.87
0.34 0.30 0.43 0.71 0.72 0.76 0.74 0.69 0.68 0.69 0.73 0.69 0.70 0.67 0.74 0.79 0.76 0.71 0.69 0.71 0.71 0.75 0.76 0.81 0.87 0.89 0.91 0.93 1.02 1.28 1.67 1.97 1.77 1.20 1.00 1.25 1.18 1.22 1.33 1.34 1.26 1.09 0.90
0.41 0.32 0.41 0.69 0.77 0.75 0.73 0.68 0.67 0.66 0.67 0.67 0.66 0.65 0.68 0.73 0.74 0.76 0.78 0.81 0.75 0.77 0.80 0.81 0.83 0.83 0.89 0.99 1.12 1.26 1.62 1.63 1.28 1.08 0.97 1.05 0.86 1.13 1.29 1.21 1.15 1.04 0.93
0.72 0.58 0.51 0.58 0.68 0.71 0.77 0.77 0.70 0.68 0.68 0.67 0.69 0.69 0.67 0.68 0.70 0.71 0.85 0.88 0.82 0.83 0.84 0.87 0.86 0.88 0.93 1.03 1.14 1.30 1.59 1.71 1.44 1.30 1.03 0.99 0.82 1.14 1.38 1.17 1.02 0.93 0.94
1.33 1.11 0.85 0.68 0.77 0.73 0.77 0.80 0.77 0.65 0.64 0.68 0.73 0.72 0.74 0.82 0.87 0.95 0.94 0.91 0.93 1.01 1.04 1.08 1.03 1.00 1.11 1.20 1.29 1.43 1.62 1.57 1.39 1.58 1.35 1.00 0.94 1.26 1.48 1.49 1.28 1.08 1.01
1.67 1.50 1.34 1.09 0.86 0.91 0.89 0.80 0.92 0.82 0.80 0.92 1.10 1.08 1.14 1.45 1.43 1.52 1.23 1.14 1.24 1.43 1.48 1.52 1.51 1.44 1.38 1.34 1.50 1.70 1.58 1.49 1.70 1.87 1.57 1.13 1.22 1.63 1.78 1.85 1.67 1.50 1.37
1.67 1.49 1.49 1.41 1.13 1.05 1.04 1.26 1.59 1.41 1.40 1.47 1.73 1.63 1.91 2.02 1.90 1.41 1.46 1.61 1.72 2.08 2.20 2.23 2.27 2.05 1.77 1.65 1.81 1.82 1.59 1.64 1.86 1.65 1.39 1.23 1.39 1.80 2.09 2.13 1.94 1.72 1.63
1.88 1.74 1.46 1.57 1.44 1.44 1.61 1.67 1.84 1.93 1.90 1.87 1.98 2.03 2.27 2.08 1.77 1.68 2.00 2.35 2.50 2.67 2.84 2.88 2.79 2.34 2.29 2.46 2.45 2.21 2.10 1.94 1.99 1.72 1.39 1.44 1.58 1.92 2.23 2.30 2.12 1.96 1.80
2.15 2.04 1.91 1.89 1.91 1.92 1.96 1.88 1.77 1.60 1.61 1.73 1.90 1.94 2.16 2.26 2.28 2.26 2.43 2.54 2.74 3.09 3.46 3.40 3.35 3.09 3.10 2.91 2.66 2.63 2.44 2.13 2.28 2.37 1.90 1.73 1.82 2.18 2.39 2.39 2.23 2.11 2.10
2.84 2.69 2.68 2.74 2.54 2.34 2.29 1.96 1.59 1.50 1.40 1.44 1.57 1.70 1.77 2.09 2.36 2.41 2.28 2.31 2.29 2.51 2.93 3.46 3.41 3.57 3.54 3.20 2.73 2.52 2.56 2.43 2.38 2.33 1.98 2.06 2.26 2.31 2.35 2.33 2.27 2.23 2.26
3.82 3.64 3.44 3.49 3.03 2.67 2.43 2.07 1.79 1.54 1.55 1.46 1.37 1.40 1.63 1.89 2.18 2.15 2.12 2.29 2.35 2.30 2.46 2.89 3.08 3.43 3.40 3.06 2.55 2.32 2.30 2.35 2.23 2.21 1.97 2.02 2.16 2.03 2.06 2.32 2.53 2.60 2.52
4.93 4.53 3.94 3.66 3.33 3.05 2.77 2.28 1.89 1.71 1.46 1.48 1.45 1.38 1.46 1.61 1.86 1.86 1.95 1.95 2.01 1.95 2.03 2.24 2.49 2.77 2.74 2.60 2.48 2.40 2.31 2.21 2.04 2.02 2.08 2.03 1.79 1.86 1.96 2.10 2.34 2.47 2.64
5.72 5.13 4.41 3.70 3.71 3.55 3.24 2.58 2.08 1.78 1.64 1.56 1.50 1.37 1.29 1.32 1.33 1.46 1.51 1.49 1.51 1.39 1.53 1.84 1.94 2.19 2.41 2.49 2.58 2.36 2.25 2.29 2.08 2.02 2.00 2.02 2.01 1.72 1.99 2.05 2.09 2.15 2.46
5.89 5.69 5.05 4.85 4.61 3.93 3.20 2.59 2.17 1.87 1.73 1.56 1.47 1.40 1.33 1.23 1.19 1.29 1.39 1.48 1.25 1.22 1.29 1.20 1.57 1.78 2.04 2.16 1.89 2.01 1.88 1.94 1.84 1.62 1.63 1.53 1.73 1.73 1.87 1.85 1.94 1.93 2.16
4.83 4.74 4.67 4.78 4.31 3.69 3.05 2.55 2.25 1.98 1.68 1.49 1.41 1.42 1.33 1.28 1.24 1.38 1.26 1.26 1.15 1.30 1.44 1.53 1.78 1.71 1.65 1.75 1.50 1.71 1.60 1.47 1.49 1.43 1.31 1.35 1.44 1.33 1.56 1.76 1.86 1.61 1.82
3.25 3.36 3.68 3.89 3.61 3.12 2.69 2.19 1.97 1.90 1.71 1.51 1.38 1.28 1.33 1.27 1.39 1.50 1.27 1.55 1.38 1.35 1.41 1.45 1.59 1.58 1.43 1.39 1.73 1.92 1.53 1.17 1.17 1.06 1.05 1.23 1.31 1.34 1.60 1.88 1.94 1.88 1.65
2.34 2.65 3.03 3.28 3.12 2.59 2.35 2.13 1.99 1.91 1.77 1.71 1.56 1.49 1.34 1.30 1.35 1.27 1.50 1.35 1.39 1.50 1.53 1.60 1.69 1.69 1.50 1.42 1.73 2.09 1.84 1.76 1.56 0.88 0.99 1.13 1.23 1.45 1.53 1.55 1.72 1.94 1.69
2.05 2.21 2.27 2.53 2.74 2.48 2.35 2.26 2.14 2.05 1.86 1.90 1.80 1.64 1.33 1.21 1.25 1.29 1.30 1.32 1.50 1.34 1.59 1.78 1.72 1.76 1.74 1.58 1.57 1.87 1.93 1.91 1.64 1.23 0.99 0.98 1.15 1.47 1.52 1.59 1.50 1.65 1.79
1.44 1.73 1.98 2.24 2.42 2.36 2.24 2.04 1.86 1.68 1.59 1.59 1.61 1.63 1.49 1.36 1.19 1.20 1.21 1.36 1.52 1.34 1.68 1.39 1.45 1.69 1.81 1.65 1.57 1.43 1.46 1.63 1.76 1.68 1.39 1.12 1.12 1.28 1.36 1.29 1.32 1.53 1.66
0.99 1.39 1.82 2.18 2.42 2.32 2.03 1.86 1.85 1.74 1.70 1.62 1.55 1.73 1.62 1.53 1.32 1.14 1.22 1.35 1.42 1.34 1.44 1.47 1.72 1.63 1.60 1.58 1.60 1.62 1.67 1.56 1.36 1.47 1.56 1.50 1.37 1.09 1.00 1.06 1.19 1.37 1.41
0.81 1.07 1.39 1.74 1.99 2.02 1.86 1.76 1.81 1.84 1.81 1.67 1.48 1.48 1.40 1.41 1.36 1.26 1.33 1.39 1.34 1.28 1.35 1.38 1.52 1.54 1.63 1.70 1.57 1.47 1.57 1.49 1.38 1.43 1.29 1.27 1.34 1.02 0.89 0.91 1.02 1.21 1.29

GEFSSE_prec_meanprecacc_222.txt.gz
Total_Precipitation_Accumulation
0.92 1.16 1.63 1.58 1.36 1.36 1.40 1.36 1.20 1.07 0.98 1.00 1.00 0.93 0.84 0.74 0.67 0.64 0.61 0.60 0.60 0.66 0.74 0.81 0.83 0.80 0.88 0.98 1.09 1.16 1.19 1.29 1.43 1.67 1.83 1.83 1.86 1.91 2.06 2.13 2.08 1.61 1.56
0.65 0.94 1.38 1.39 1.18 1.19 1.20 1.20 1.10 0.97 0.93 0.94 1.00 0.99 0.92 0.86 0.75 0.65 0.62 0.62 0.67 0.70 0.70 0.71 0.78 0.75 0.80 0.91 1.03 1.09 1.16 1.34 1.77 2.10 2.25 2.12 2.11 2.13 2.18 2.12 2.09 1.66 1.49
0.62 0.78 0.99 1.21 1.12 1.09 1.03 1.03 0.99 0.92 0.88 0.87 0.91 0.94 0.90 0.84 0.72 0.64 0.64 0.68 0.72 0.70 0.65 0.74 0.79 0.74 0.81 0.92 1.00 1.01 1.19 1.50 2.12 2.72 2.85 2.35 1.94 2.15 2.20 2.13 1.89 1.49 1.32
0.55 0.75 0.78 1.00 1.00 1.03 1.00 0.99 0.97 0.89 0.78 0.78 0.77 0.77 0.75 0.76 0.69 0.62 0.62 0.66 0.68 0.65 0.67 0.76 0.80 0.81 0.80 0.85 0.94 1.14 1.39 1.62 2.17 2.66 2.69 1.96 1.53 1.64 1.87 1.67 1.48 1.30 1.11
0.51 0.63 0.79 0.91 0.87 0.92 0.88 0.87 0.89 0.87 0.80 0.73 0.69 0.73 0.72 0.69 0.66 0.62 0.63 0.65 0.68 0.69 0.69 0.73 0.83 0.87 0.85 0.85 0.97 1.24 1.56 1.89 2.22 2.37 1.95 2.13 1.99 1.65 1.55 1.40 1.35 1.11 0.90
0.39 0.43 0.65 0.85 0.81 0.89 0.82 0.77 0.79 0.79 0.79 0.73 0.71 0.73 0.78 0.79 0.78 0.68 0.61 0.64 0.71 0.76 0.76 0.79 0.89 0.92 0.85 0.85 0.98 1.29 1.60 2.01 2.09 1.54 1.20 1.54 1.54 1.46 1.41 1.37 1.24 1.05 0.88
0.36 0.35 0.49 0.78 0.76 0.79 0.77 0.74 0.72 0.73 0.77 0.71 0.72 0.69 0.76 0.81 0.78 0.73 0.71 0.72 0.71 0.76 0.77 0.82 0.89 0.92 0.93 0.95 1.03 1.29 1.68 1.99 1.80 1.23 1.02 1.27 1.19 1.23 1.35 1.36 1.29 1.12 0.91
0.43 0.35 0.44 0.73 0.81 0.79 0.77 0.73 0.70 0.69 0.70 0.69 0.68 0.66 0.71 0.76 0.77 0.78 0.80 0.82 0.75 0.77 0.81 0.82 0.84 0.84 0.90 1.00 1.14 1.28 1.64 1.65 1.30 1.10 1.00 1.08 0.87 1.14 1.30 1.23 1.17 1.06 0.94
0.73 0.60 0.53 0.62 0.72 0.75 0.81 0.80 0.72 0.70 0.70 0.69 0.72 0.72 0.69 0.71 0.73 0.74 0.86 0.88 0.82 0.83 0.85 0.88 0.87 0.89 0.95 1.05 1.17 1.33 1.63 1.74 1.46 1.33 1.07 1.03 0.83 1.15 1.39 1.19 1.03 0.94 0.95
1.34 1.13 0.86 0.70 0.82 0.76 0.80 0.83 0.81 0.68 0.67 0.71 0.78 0.76 0.77 0.85 0.89 0.97 0.95 0.92 0.94 1.02 1.05 1.08 1.04 1.01 1.13 1.22 1.31 1.47 1.66 1.60 1.42 1.62 1.41 1.06 0.96 1.27 1.50 1.51 1.30 1.10 1.02
1.69 1.52 1.35 1.14 0.92 0.94 0.92 0.82 0.94 0.85 0.84 0.97 1.15 1.13 1.18 1.48 1.45 1.53 1.24 1.17 1.26 1.44 1.50 1.54 1.52 1.45 1.40 1.36 1.53 1.73 1.61 1.52 1.77 1.93 1.62 1.17 1.24 1.66 1.81 1.88 1.69 1.51 1.38
1.68 1.50 1.50 1.44 1.16 1.10 1.07 1.28 1.62 1.43 1.42 1.49 1.76 1.65 1.92 2.03 1.91 1.41 1.47 1.64 1.75 2.09 2.22 2.26 2.29 2.07 1.79 1.66 1.83 1.85 1.63 1.71 1.98 1.73 1.43 1.26 1.42 1.84 2.12 2.15 1.96 1.74 1.65
1.88 1.74 1.47 1.58 1.46 1.48 1.65 1.72 1.87 1.95 1.91 1.88 2.01 2.04 2.28 2.09 1.78 1.69 2.01 2.37 2.52 2.68 2.86 2.91 2.82 2.36 2.31 2.49 2.48 2.26 2.15 2.00 2.06 1.77 1.42 1.47 1.62 1.96 2.25 2.32 2.13 1.98 1.81
2.15 2.04 1.92 1.90 1.92 1.94 1.98 1.92 1.79 1.62 1.63 1.76 1.94 1.97 2.18 2.28 2.29 2.27 2.44 2.55 2.76 3.10 3.48 3.42 3.36 3.11 3.11 2.93 2.70 2.67 2.48 2.16 2.33 2.41 1.93 1.75 1.85 2.20 2.41 2.41 2.25 2.14 2.13
2.84 2.69 2.68 2.74 2.55 2.35 2.30 1.97 1.60 1.51 1.41 1.46 1.60 1.75 1.79 2.11 2.39 2.43 2.29 2.32 2.30 2.52 2.94 3.48 3.44 3.59 3.56 3.21 2.75 2.57 2.60 2.46 2.42 2.37 2.01 2.08 2.28 2.33 2.37 2.35 2.30 2.26 2.29
3.82 3.64 3.44 3.49 3.03 2.68 2.44 2.08 1.81 1.55 1.56 1.48 1.39 1.44 1.66 1.91 2.19 2.17 2.13 2.31 2.37 2.31 2.47 2.91 3.10 3.44 3.42 3.07 2.56 2.36 2.33 2.38 2.26 2.25 2.00 2.04 2.18 2.06 2.08 2.35 2.58 2.65 2.56
4.93 4.53 3.94 3.66 3.33 3.06 2.78 2.29 1.90 1.72 1.49 1.52 1.50 1.42 1.49 1.63 1.87 1.88 1.97 1.98 2.05 1.98 2.06 2.26 2.50 2.78 2.75 2.61 2.49 2.41 2.32 2.22 2.06 2.07 2.13 2.07 1.81 1.89 2.00 2.15 2.39 2.53 2.67
5.72 5.13 4.41 3.70 3.71 3.56 3.25 2.58 2.10 1.81 1.66 1.59 1.53 1.40 1.31 1.35 1.35 1.48 1.53 1.53 1.54 1.42 1.55 1.87 1.96 2.20 2.42 2.50 2.58 2.37 2.26 2.31 2.10 2.06 2.04 2.06 2.07 1.79 2.04 2.10 2.15 2.19 2.51
5.89 5.69 5.05 4.85 4.61 3.94 3.20 2.59 2.18 1.89 1.76 1.59 1.51 1.44 1.35 1.25 1.21 1.31 1.42 1.50 1.27 1.25 1.31 1.23 1.59 1.80 2.05 2.18 1.90 2.02 1.89 1.95 1.86 1.64 1.66 1.58 1.81 1.81 1.94 1.91 2.00 1.98 2.22
4.83 4.74 4.68 4.78 4.31 3.69 3.06 2.56 2.26 2.00 1.71 1.53 1.48 1.45 1.35 1.29 1.27 1.40 1.28 1.29 1.17 1.33 1.48 1.55 1.80 1.74 1.68 1.78 1.52 1.74 1.63 1.49 1.52 1.45 1.35 1.41 1.50 1.41 1.64 1.85 1.92 1.67 1.88
3.25 3.36 3.68 3.90 3.61 3.12 2.70 2.19 1.99 1.93 1.74 1.54 1.41 1.30 1.35 1.28 1.40 1.51 1.29 1.57 1.41 1.38 1.45 1.48 1.61 1.61 1.46 1.42 1.78 1.96 1.57 1.21 1.23 1.11 1.10 1.29 1.36 1.41 1.70 1.94 1.99 1.93 1.69
2.34 2.66 3.03 3.28 3.12 2.59 2.36 2.14 2.00 1.93 1.80 1.74 1.59 1.52 1.35 1.31 1.36 1.28 1.50 1.36 1.40 1.52 1.56 1.63 1.72 1.73 1.54 1.47 1.78 2.14 1.88 1.81 1.61 0.93 1.05 1.19 1.28 1.51 1.60 1.61 1.77 1.98 1.73
2.06 2.21 2.27 2.54 2.74 2.49 2.36 2.27 2.16 2.07 1.88 1.92 1.83 1.66 1.34 1.22 1.25 1.30 1.31 1.33 1.52 1.35 1.61 1.80 1.74 1.80 1.78 1.62 1.62 1.92 1.99 1.96 1.68 1.29 1.05 1.03 1.20 1.53 1.58 1.64 1.55 1.70 1.83
1.47 1.75 2.00 2.26 2.44 2.38 2.26 2.05 1.87 1.69 1.60 1.60 1.63 1.64 1.50 1.37 1.21 1.21 1.21 1.37 1.53 1.36 1.70 1.41 1.46 1.70 1.84 1.68 1.61 1.47 1.50 1.67 1.80 1.72 1.44 1.16 1.16 1.32 1.41 1.33 1.37 1.57 1.70
1.04 1.44 1.86 2.21 2.44 2.33 2.04 1.87 1.86 1.75 1.70 1.63 1.56 1.74 1.62 1.54 1.34 1.16 1.23 1.37 1.43 1.35 1.46 1.49 1.73 1.64 1.61 1.60 1.62 1.65 1.70 1.59 1.40 1.51 1.59 1.53 1.41 1.14 1.04 1.09 1.21 1.39 1.44
0.85 1.11 1.45 1.78 2.02 2.04 1.88 1.78 1.82 1.85 1.82 1.68 1.49 1.49 1.41 1.42 1.37 1.28 1.34 1.40 1.35 1.30 1.37 1.40 1.53 1.55 1.64 1.72 1.59 1.49 1.60 1.51 1.40 1.46 1.32 1.31 1.38 1.06 0.92 0.93 1.04 1.23 1.32

GEFSSE_prec_meanprecacc_228.txt.gz
Total_Precipitation_Accumulation
1.02 1.32 1.87 1.79 1.54 1.49 1.53 1.49 1.34 1.17 1.08 1.10 1.10 1.04 0.96 0.86 0.78 0.74 0.69 0.65 0.64 0.69 0.76 0.83 0.86 0.82 0.89 1.00 1.12 1.20 1.23 1.32 1.46 1.72 1.86 1.84 1.87 1.95 2.09 2.15 2.09 1.62 1.57
0.75 1.08 1.58 1.59 1.34 1.31 1.33 1.31 1.20 1.06 1.04 1.04 1.09 1.07 1.00 0.94 0.82 0.72 0.67 0.65 0.69 0.71 0.71 0.72 0.79 0.76 0.81 0.93 1.05 1.10 1.19 1.37 1.81 2.16 2.31 2.14 2.14 2.17 2.21 2.14 2.10 1.67 1.51
0.71 0.90 1.16 1.38 1.26 1.20 1.12 1.12 1.06 1.01 0.98 0.94 0.96 0.99 0.95 0.89 0.76 0.68 0.68 0.70 0.74 0.72 0.66 0.75 0.80 0.75 0.83 0.94 1.00 1.02 1.21 1.52 2.16 2.78 2.90 2.36 1.96 2.19 2.23 2.16 1.91 1.51 1.34
0.63 0.84 0.91 1.15 1.13 1.11 1.07 1.07 1.05 0.95 0.84 0.83 0.81 0.80 0.78 0.79 0.72 0.65 0.65 0.68 0.69 0.66 0.67 0.77 0.81 0.81 0.81 0.86 0.95 1.15 1.40 1.64 2.19 2.69 2.71 1.97 1.54 1.66 1.89 1.70 1.51 1.32 1.13
0.58 0.71 0.91 1.04 0.97 1.00 0.95 0.93 0.96 0.91 0.84 0.77 0.72 0.76 0.74 0.72 0.70 0.65 0.65 0.66 0.70 0.70 0.70 0.75 0.84 0.87 0.86 0.86 0.98 1.24 1.58 1.90 2.23 2.38 1.96 2.14 2.01 1.67 1.56 1.41 1.37 1.14 0.93
0.45 0.50 0.76 0.95 0.90 0.96 0.89 0.82 0.83 0.83 0.83 0.76 0.74 0.75 0.79 0.81 0.80 0.70 0.63 0.66 0.73 0.77 0.77 0.81 0.92 0.94 0.86 0.86 0.99 1.31 1.63 2.03 2.10 1.54 1.20 1.55 1.55 1.48 1.44 1.39 1.26 1.07 0.91
0.41 0.41 0.59 0.87 0.84 0.87 0.84 0.79 0.77 0.77 0.80 0.75 0.74 0.71 0.78 0.83 0.80 0.74 0.72 0.73 0.72 0.76 0.78 0.84 0.91 0.93 0.93 0.96 1.04 1.31 1.70 2.00 1.80 1.23 1.02 1.28 1.20 1.26 1.39 1.40 1.31 1.13 0.94
0.48 0.41 0.53 0.82 0.88 0.86 0.83 0.77 0.76 0.74 0.73 0.72 0.71 0.70 0.74 0.79 0.79 0.79 0.81 0.83 0.76 0.78 0.82 0.84 0.85 0.85 0.92 1.02 1.15 1.30 1.67 1.67 1.31 1.10 1.00 1.09 0.88 1.16 1.34 1.27 1.19 1.07 0.95
0.78 0.65 0.59 0.71 0.82 0.82 0.88 0.85 0.77 0.75 0.74 0.73 0.76 0.75 0.72 0.74 0.75 0.76 0.88 0.90 0.83 0.84 0.86 0.89 0.88 0.91 0.98 1.08 1.19 1.36 1.66 1.77 1.47 1.34 1.08 1.03 0.84 1.18 1.43 1.22 1.05 0.96 0.97
1.39 1.18 0.92 0.79 0.90 0.80 0.84 0.89 0.87 0.73 0.72 0.76 0.82 0.79 0.79 0.87 0.92 0.99 0.96 0.93 0.95 1.02 1.06 1.09 1.06 1.04 1.16 1.25 1.35 1.50 1.69 1.63 1.44 1.63 1.42 1.07 0.97 1.30 1.54 1.54 1.33 1.12 1.04
1.71 1.55 1.40 1.21 0.98 0.97 0.95 0.88 0.99 0.91 0.88 1.02 1.19 1.15 1.20 1.49 1.45 1.54 1.25 1.19 1.28 1.46 1.51 1.56 1.55 1.48 1.43 1.38 1.57 1.77 1.65 1.55 1.80 1.96 1.64 1.18 1.26 1.69 1.85 1.92 1.73 1.54 1.41
1.69 1.51 1.53 1.48 1.19 1.12 1.09 1.31 1.64 1.45 1.46 1.53 1.77 1.66 1.94 2.04 1.91 1.42 1.49 1.69 1.81 2.14 2.26 2.31 2.35 2.12 1.82 1.68 1.86 1.89 1.65 1.74 2.01 1.75 1.45 1.28 1.45 1.87 2.15 2.20 2.01 1.76 1.68
1.88 1.75 1.48 1.60 1.47 1.50 1.67 1.73 1.88 1.96 1.93 1.91 2.02 2.05 2.28 2.09 1.79 1.69 2.02 2.38 2.55 2.71 2.89 2.96 2.87 2.40 2.33 2.51 2.51 2.29 2.17 2.03 2.08 1.80 1.45 1.48 1.65 2.00 2.30 2.38 2.19 2.01 1.84
2.16 2.05 1.93 1.91 1.93 1.94 2.00 1.93 1.81 1.63 1.64 1.77 1.95 1.98 2.18 2.28 2.30 2.27 2.44 2.56 2.76 3.11 3.49 3.44 3.38 3.13 3.14 2.95 2.72 2.70 2.50 2.18 2.34 2.43 1.94 1.77 1.88 2.24 2.45 2.46 2.31 2.19 2.16
2.84 2.69 2.69 2.75 2.56 2.35 2.31 1.98 1.61 1.52 1.42 1.47 1.61 1.76 1.80 2.12 2.40 2.43 2.30 2.33 2.31 2.53 2.96 3.50 3.45 3.61 3.59 3.24 2.77 2.60 2.62 2.47 2.44 2.39 2.03 2.10 2.32 2.36 2.40 2.40 2.36 2.32 2.35
3.82 3.64 3.44 3.49 3.04 2.68 2.45 2.10 1.82 1.56 1.58 1.50 1.41 1.45 1.68 1.93 2.19 2.17 2.15 2.32 2.39 2.34 2.50 2.93 3.12 3.47 3.45 3.10 2.60 2.38 2.35 2.40 2.28 2.28 2.03 2.07 2.22 2.09 2.12 2.39 2.62 2.71 2.62
4.93 4.54 3.94 3.67 3.34 3.07 2.80 2.31 1.92 1.74 1.51 1.56 1.53 1.44 1.51 1.65 1.88 1.89 1.99 2.00 2.07 2.00 2.07 2.29 2.53 2.80 2.77 2.63 2.53 2.44 2.35 2.26 2.09 2.11 2.16 2.08 1.83 1.92 2.05 2.20 2.43 2.58 2.73
5.73 5.14 4.41 3.71 3.72 3.56 3.26 2.60 2.11 1.82 1.69 1.62 1.56 1.43 1.34 1.37 1.37 1.50 1.56 1.54 1.56 1.44 1.57 1.89 1.97 2.22 2.44 2.52 2.60 2.39 2.28 2.33 2.14 2.10 2.07 2.08 2.08 1.80 2.07 2.16 2.22 2.25 2.55
5.89 5.69 5.06 4.85 4.61 3.94 3.21 2.61 2.20 1.91 1.79 1.62 1.54 1.47 1.37 1.28 1.26 1.34 1.45 1.53 1.30 1.28 1.34 1.24 1.61 1.83 2.07 2.20 1.92 2.04 1.91 1.97 1.87 1.66 1.69 1.61 1.85 1.84 1.97 1.95 2.06 2.04 2.29
4.84 4.74 4.68 4.78 4.32 3.70 3.07 2.58 2.29 2.03 1.75 1.57 1.51 1.48 1.38 1.34 1.32 1.47 1.33 1.32 1.21 1.38 1.53 1.59 1.85 1.78 1.72 1.81 1.55 1.76 1.65 1.50 1.53 1.46 1.36 1.43 1.55 1.46 1.69 1.89 1.96 1.72 1.96
3.27 3.37 3.68 3.90 3.62 3.14 2.72 2.23 2.02 1.96 1.77 1.57 1.44 1.32 1.38 1.32 1.45 1.58 1.36 1.62 1.44 1.41 1.48 1.52 1.64 1.64 1.49 1.46 1.80 1.98 1.58 1.22 1.23 1.12 1.11 1.30 1.38 1.44 1.73 1.97 2.03 2.00 1.75
2.36 2.67 3.05 3.30 3.15 2.61 2.38 2.17 2.03 1.96 1.82 1.76 1.62 1.54 1.37 1.33 1.40 1.34 1.58 1.44 1.45 1.55 1.59 1.67 1.77 1.77 1.58 1.51 1.81 2.17 1.92 1.83 1.62 0.94 1.06 1.21 1.29 1.53 1.62 1.64 1.80 2.02 1.77
2.12 2.28 2.31 2.56 2.77 2.51 2.38 2.30 2.18 2.08 1.89 1.94 1.84 1.67 1.35 1.23 1.27 1.33 1.35 1.38 1.56 1.40 1.65 1.85 1.79 1.84 1.82 1.65 1.65 1.96 2.04 1.99 1.70 1.29 1.05 1.04 1.21 1.54 1.60 1.67 1.58 1.73 1.86
1.51 1.81 2.05 2.28 2.47 2.40 2.28 2.07 1.90 1.71 1.61 1.61 1.64 1.65 1.51 1.39 1.23 1.23 1.24 1.40 1.57 1.40 1.74 1.44 1.49 1.73 1.87 1.70 1.63 1.50 1.54 1.70 1.82 1.73 1.45 1.16 1.17 1.33 1.43 1.36 1.40 1.61 1.73
1.06 1.46 1.90 2.22 2.46 2.35 2.06 1.89 1.87 1.77 1.72 1.64 1.57 1.75 1.63 1.55 1.35 1.18 1.26 1.39 1.46 1.39 1.50 1.53 1.76 1.68 1.65 1.63 1.65 1.68 1.75 1.63 1.43 1.53 1.60 1.54 1.42 1.15 1.05 1.11 1.23 1.41 1.46
0.86 1.13 1.49 1.79 2.03 2.05 1.91 1.83 1.86 1.87 1.83 1.69 1.50 1.49 1.41 1.43 1.39 1.30 1.36 1.42 1.38 1.34 1.41 1.44 1.57 1.59 1.68 1.77 1.62 1.52 1.64 1.55 1.44 1.49 1.34 1.32 1.39 1.07 0.92 0.94 1.05 1.25 1.34